| time (UTC) | temp F | wind direction | speed MPH | gust MPH | rain 1hr in | rain 24hr in | rain mn in | humidity % | barometer mb |
| 20260903165803 | 86 | 353 | 2.0 | 3.0 | 0.00 | 0.01 | 0.01 | 58 | 1020.4 |
| 20260903165703 | 86 | 352 | 2.0 | 3.0 | 0.00 | 0.01 | 0.01 | 56 | 1020.6 |
| 20260903165603 | 86 | 353 | 3.0 | 3.0 | 0.00 | 0.01 | 0.01 | 56 | 1020.5 |
| 20260903165503 | 86 | 353 | 3.0 | 3.0 | 0.00 | 0.01 | 0.01 | 56 | 1020.5 |
| 20260903165403 | 86 | 355 | 3.0 | 3.0 | 0.00 | 0.01 | 0.01 | 56 | 1020.5 |
| 20260903165325 | 86 | 353 | 3.0 | 4.0 | 0.00 | 0.01 | 0.01 | 57 | 1020.4 |
| 20260903165203 | 86 | 352 | 3.0 | 4.0 | 0.00 | 0.01 | 0.01 | 56 | 1020.5 |
| 20260903165103 | 86 | 353 | 2.0 | 4.0 | 0.00 | 0.01 | 0.01 | 55 | 1020.5 |
| 20260903165003 | 86 | 354 | 2.0 | 4.0 | 0.00 | 0.01 | 0.01 | 56 | 1020.5 |
| 20260903164924 | 86 | 356 | 2.0 | 4.0 | 0.00 | 0.01 | 0.01 | 55 | 1020.4 |
| 20260903164803 | 86 | 357 | 2.0 | 4.0 | 0.00 | 0.01 | 0.01 | 55 | 1020.4 |
| 20260903164703 | 86 | 358 | 2.0 | 4.0 | 0.00 | 0.01 | 0.01 | 55 | 1020.4 |
| 20260903164603 | 86 | 359 | 1.0 | 4.0 | 0.00 | 0.01 | 0.01 | 55 | 1020.5 |
| 20260903164524 | 87 | 356 | 1.0 | 4.0 | 0.00 | 0.01 | 0.01 | 56 | 1020.4 |
| 20260903164404 | 87 | 354 | 1.0 | 4.0 | 0.00 | 0.01 | 0.01 | 55 | 1020.6 |
| 20260903164303 | 87 | 355 | 1.0 | 3.0 | 0.00 | 0.01 | 0.01 | 57 | 1020.5 |
| 20260903164203 | 87 | 355 | 1.0 | 3.0 | 0.00 | 0.01 | 0.01 | 56 | 1020.4 |
| 20260903164103 | 87 | 354 | 1.0 | 3.0 | 0.00 | 0.01 | 0.01 | 56 | 1020.3 |
| 20260903164003 | 87 | 356 | 1.0 | 3.0 | 0.00 | 0.01 | 0.01 | 56 | 1020.6 |
| 20260903163903 | 87 | 353 | 2.0 | 3.0 | 0.00 | 0.01 | 0.01 | 55 | 1020.4 |
| 20260903163824 | 87 | 352 | 2.0 | 3.0 | 0.00 | 0.01 | 0.01 | 56 | 1020.5 |
| 20260903163724 | 87 | 352 | 2.0 | 3.0 | 0.00 | 0.01 | 0.01 | 55 | 1020.5 |
| 20260903163603 | 87 | 351 | 2.0 | 3.0 | 0.00 | 0.01 | 0.01 | 56 | 1020.6 |
| 20260903163503 | 87 | 350 | 2.0 | 3.0 | 0.00 | 0.01 | 0.01 | 56 | 1020.5 |
| 20260903163425 | 87 | 350 | 2.0 | 3.0 | 0.00 | 0.01 | 0.01 | 56 | 1020.5 |
| 20260903163303 | 87 | 351 | 2.0 | 3.0 | 0.00 | 0.01 | 0.01 | 55 | 1020.5 |
| 20260903163224 | 87 | 354 | 2.0 | 3.0 | 0.00 | 0.01 | 0.01 | 55 | 1020.6 |
| 20260903163103 | 87 | 353 | 2.0 | 3.0 | 0.00 | 0.01 | 0.01 | 56 | 1020.5 |
| 20260903163004 | 87 | 352 | 2.0 | 3.0 | 0.00 | 0.01 | 0.01 | 54 | 1020.4 |
| 20260903162903 | 88 | 352 | 2.0 | 3.0 | 0.00 | 0.01 | 0.01 | 54 | 1020.5 |
| 20260903162824 | 88 | 348 | 2.0 | 3.0 | 0.00 | 0.01 | 0.01 | 54 | 1020.5 |
| 20260903162703 | 87 | 349 | 2.0 | 3.0 | 0.00 | 0.01 | 0.01 | 55 | 1020.6 |
| 20260903162624 | 87 | 353 | 2.0 | 3.0 | 0.00 | 0.01 | 0.01 | 55 | 1020.5 |
| 20260903162524 | 87 | 354 | 2.0 | 3.0 | 0.00 | 0.01 | 0.01 | 55 | 1020.7 |
| 20260903162424 | 87 | 354 | 2.0 | 3.0 | 0.00 | 0.01 | 0.01 | 55 | 1020.5 |
| 20260903162306 | 87 | 354 | 2.0 | 3.0 | 0.00 | 0.01 | 0.01 | 54 | 1020.5 |
| 20260903162203 | 88 | 352 | 2.0 | 3.0 | 0.00 | 0.01 | 0.01 | 55 | 1020.6 |
| 20260903162103 | 88 | 351 | 1.0 | 3.0 | 0.00 | 0.01 | 0.01 | 56 | 1020.5 |
| 20260903162003 | 88 | 350 | 1.0 | 3.0 | 0.00 | 0.01 | 0.01 | 58 | 1020.7 |
| 20260903161924 | 87 | 349 | 1.0 | 3.0 | 0.00 | 0.01 | 0.01 | 56 | 1020.6 |
| 20260903161824 | 87 | 348 | 1.0 | 3.0 | 0.00 | 0.01 | 0.01 | 55 | 1020.5 |
| 20260903161703 | 88 | 354 | 1.0 | 3.0 | 0.00 | 0.01 | 0.01 | 56 | 1020.8 |
| 20260903161603 | 88 | 354 | 1.0 | 3.0 | 0.00 | 0.01 | 0.01 | 55 | 1020.7 |
| 20260903161503 | 89 | 350 | 1.0 | 2.0 | 0.00 | 0.01 | 0.01 | 54 | 1020.6 |
| 20260903161403 | 89 | 350 | 1.0 | 2.0 | 0.00 | 0.01 | 0.01 | 54 | 1020.7 |
| 20260903161303 | 89 | 351 | 1.0 | 2.0 | 0.00 | 0.01 | 0.01 | 55 | 1020.7 |
| 20260903161203 | 89 | 352 | 1.0 | 2.0 | 0.00 | 0.01 | 0.01 | 55 | 1020.7 |
| 20260903161103 | 89 | 351 | 1.0 | 2.0 | 0.00 | 0.01 | 0.01 | 54 | 1020.8 |
| 20260903161003 | 89 | 351 | 1.0 | 2.0 | 0.00 | 0.01 | 0.01 | 53 | 1020.9 |
| 20260903160924 | 89 | 347 | 1.0 | 2.0 | 0.00 | 0.01 | 0.01 | 52 | 1020.6 |
| 20260903160824 | 89 | 346 | 1.0 | 3.0 | 0.00 | 0.01 | 0.01 | 52 | 1020.6 |
| 20260903160703 | 89 | 343 | 1.0 | 3.0 | 0.00 | 0.01 | 0.01 | 53 | 1020.8 |
| 20260903160603 | 89 | 343 | 1.0 | 3.0 | 0.00 | 0.01 | 0.01 | 55 | 1020.7 |
| 20260903160503 | 88 | 341 | 1.0 | 3.0 | 0.00 | 0.01 | 0.01 | 54 | 1020.8 |
| 20260903160403 | 88 | 342 | 1.0 | 3.0 | 0.00 | 0.01 | 0.01 | 55 | 1020.7 |
| 20260903160303 | 88 | 338 | 2.0 | 3.0 | 0.00 | 0.01 | 0.01 | 55 | 1020.7 |
| 20260903160203 | 88 | 338 | 2.0 | 3.0 | 0.00 | 0.01 | 0.01 | 55 | 1020.8 |
| 20260903160103 | 88 | 338 | 2.0 | 3.0 | 0.00 | 0.01 | 0.01 | 54 | 1020.9 |
| 20260903160003 | 88 | 338 | 2.0 | 3.0 | 0.00 | 0.01 | 0.01 | 54 | 1020.8 |
| 20260903155903 | 88 | 339 | 2.0 | 3.0 | 0.00 | 0.01 | 0.01 | 53 | 1020.7 |
| 20260903155824 | 88 | 339 | 2.0 | 3.0 | 0.00 | 0.01 | 0.01 | 53 | 1020.6 |
| 20260903155703 | 88 | 340 | 2.0 | 3.0 | 0.00 | 0.01 | 0.01 | 53 | 1020.7 |
| 20260903155603 | 88 | 340 | 2.0 | 3.0 | 0.00 | 0.01 | 0.01 | 54 | 1020.8 |
| 20260903155504 | 88 | 338 | 2.0 | 3.0 | 0.00 | 0.01 | 0.01 | 54 | 1020.6 |
| 20260903155403 | 88 | 336 | 2.0 | 3.0 | 0.00 | 0.01 | 0.01 | 54 | 1020.6 |
| 20260903155306 | 88 | 337 | 2.0 | 3.0 | 0.00 | 0.01 | 0.01 | 55 | 1020.8 |
| 20260903155203 | 87 | 339 | 2.0 | 3.0 | 0.00 | 0.01 | 0.01 | 54 | 1020.8 |
| 20260903155103 | 87 | 331 | 2.0 | 3.0 | 0.00 | 0.01 | 0.01 | 56 | 1020.8 |
| 20260903155003 | 87 | 332 | 2.0 | 3.0 | 0.00 | 0.01 | 0.01 | 56 | 1020.7 |
| 20260903154903 | 88 | 328 | 2.0 | 3.0 | 0.00 | 0.01 | 0.01 | 56 | 1020.8 |
| 20260903154803 | 88 | 332 | 2.0 | 4.0 | 0.00 | 0.01 | 0.01 | 54 | 1020.8 |
| 20260903154724 | 88 | 331 | 2.0 | 4.0 | 0.00 | 0.01 | 0.01 | 55 | 1020.9 |
| 20260903154603 | 88 | 336 | 2.0 | 4.0 | 0.00 | 0.01 | 0.01 | 55 | 1020.7 |
| 20260903154524 | 88 | 338 | 2.0 | 4.0 | 0.00 | 0.01 | 0.01 | 55 | 1020.9 |
| 20260903154403 | 88 | 339 | 2.0 | 4.0 | 0.00 | 0.01 | 0.01 | 55 | 1020.8 |
| 20260903154304 | 88 | 341 | 2.0 | 4.0 | 0.00 | 0.01 | 0.01 | 55 | 1020.8 |
| 20260903154224 | 88 | 341 | 2.0 | 4.0 | 0.00 | 0.01 | 0.01 | 55 | 1020.8 |
| 20260903154124 | 87 | 342 | 2.0 | 4.0 | 0.00 | 0.01 | 0.01 | 55 | 1020.7 |
| 20260903154003 | 87 | 350 | 2.0 | 4.0 | 0.00 | 0.01 | 0.01 | 57 | 1020.8 |
| 20260903153903 | 87 | 351 | 2.0 | 4.0 | 0.00 | 0.01 | 0.01 | 57 | 1020.8 |
| 20260903153804 | 87 | 356 | 2.0 | 4.0 | 0.00 | 0.01 | 0.01 | 57 | 1020.8 |
| 20260903153703 | 87 | 356 | 2.0 | 4.0 | 0.00 | 0.01 | 0.01 | 57 | 1020.7 |
| 20260903153603 | 87 | 356 | 2.0 | 4.0 | 0.00 | 0.01 | 0.01 | 56 | 1020.8 |
| 20260903153503 | 87 | 355 | 2.0 | 4.0 | 0.00 | 0.01 | 0.01 | 56 | 1020.8 |
| 20260903153403 | 87 | 354 | 2.0 | 4.0 | 0.00 | 0.01 | 0.01 | 56 | 1020.8 |
| 20260903153303 | 87 | 354 | 2.0 | 4.0 | 0.00 | 0.01 | 0.01 | 57 | 1020.8 |
| 20260903153203 | 86 | 356 | 2.0 | 4.0 | 0.00 | 0.01 | 0.01 | 57 | 1020.9 |
| 20260903153103 | 86 | 356 | 2.0 | 4.0 | 0.00 | 0.01 | 0.01 | 59 | 1020.8 |
| 20260903153025 | 86 | 356 | 2.0 | 4.0 | 0.00 | 0.01 | 0.01 | 59 | 1020.8 |
| 20260903152903 | 87 | 353 | 3.0 | 4.0 | 0.00 | 0.01 | 0.01 | 57 | 1020.7 |
| 20260903152803 | 87 | 352 | 3.0 | 4.0 | 0.00 | 0.01 | 0.01 | 55 | 1020.9 |
| 20260903152704 | 87 | 353 | 2.0 | 4.0 | 0.00 | 0.01 | 0.01 | 56 | 1020.7 |
| 20260903152604 | 87 | 351 | 2.0 | 4.0 | 0.00 | 0.01 | 0.01 | 55 | 1020.9 |
| 20260903152503 | 87 | 350 | 2.0 | 3.0 | 0.00 | 0.01 | 0.01 | 58 | 1020.9 |
| 20260903152403 | 87 | 348 | 2.0 | 3.0 | 0.00 | 0.01 | 0.01 | 57 | 1020.9 |
| 20260903152324 | 87 | 348 | 2.0 | 3.0 | 0.00 | 0.01 | 0.01 | 56 | 1020.8 |
| 20260903152224 | 87 | 347 | 2.0 | 3.0 | 0.00 | 0.01 | 0.01 | 56 | 1020.8 |
| 20260903152103 | 87 | 344 | 2.0 | 3.0 | 0.00 | 0.01 | 0.01 | 56 | 1020.9 |
| 20260903152003 | 87 | 345 | 2.0 | 3.0 | 0.00 | 0.01 | 0.01 | 56 | 1021.0 |
| 20260903151903 | 87 | 347 | 2.0 | 3.0 | 0.00 | 0.01 | 0.01 | 57 | 1020.9 |
| 20260903151803 | 88 | 348 | 2.0 | 3.0 | 0.00 | 0.01 | 0.01 | 55 | 1020.9 |
| 20260903151703 | 88 | 348 | 2.0 | 3.0 | 0.00 | 0.01 | 0.01 | 56 | 1021.0 |
| 20260903151603 | 88 | 348 | 2.0 | 3.0 | 0.00 | 0.01 | 0.01 | 55 | 1021.0 |
| 20260903151524 | 88 | 349 | 2.0 | 3.0 | 0.00 | 0.01 | 0.01 | 55 | 1021.0 |
| 20260903151425 | 88 | 343 | 2.0 | 3.0 | 0.00 | 0.01 | 0.01 | 57 | 1021.0 |
| 20260903151303 | 87 | 346 | 2.0 | 3.0 | 0.00 | 0.01 | 0.01 | 57 | 1021.0 |
| 20260903151203 | 87 | 349 | 2.0 | 3.0 | 0.00 | 0.01 | 0.01 | 57 | 1021.1 |
| 20260903151102 | 87 | 351 | 2.0 | 4.0 | 0.00 | 0.01 | 0.01 | 56 | 1021.0 |
| 20260903151003 | 86 | 353 | 2.0 | 4.0 | 0.00 | 0.01 | 0.01 | 58 | 1021.1 |
| 20260903150924 | 86 | 353 | 2.0 | 4.0 | 0.00 | 0.01 | 0.01 | 58 | 1021.1 |
| 20260903150803 | 86 | 344 | 2.0 | 4.0 | 0.00 | 0.01 | 0.01 | 58 | 1021.2 |
| 20260903150703 | 86 | 342 | 2.0 | 4.0 | 0.00 | 0.01 | 0.01 | 57 | 1021.1 |
| 20260903150603 | 86 | 345 | 2.0 | 4.0 | 0.00 | 0.01 | 0.01 | 62 | 1021.3 |
| 20260903150503 | 86 | 344 | 2.0 | 4.0 | 0.00 | 0.01 | 0.01 | 58 | 1021.3 |
| 20260903150424 | 86 | 347 | 2.0 | 4.0 | 0.00 | 0.01 | 0.01 | 59 | 1021.3 |
| 20260903150303 | 87 | 344 | 2.0 | 4.0 | 0.00 | 0.01 | 0.01 | 59 | 1021.2 |
| 20260903150203 | 87 | 337 | 2.0 | 4.0 | 0.00 | 0.01 | 0.01 | 58 | 1021.2 |
| 20260903150003 | 87 | 330 | 2.0 | 3.0 | 0.00 | 0.01 | 0.01 | 58 | 1021.3 |
| 20260903145903 | 87 | 329 | 2.0 | 3.0 | 0.00 | 0.01 | 0.01 | 58 | 1021.2 |
| 20260903145802 | 87 | 337 | 2.0 | 3.0 | 0.00 | 0.01 | 0.01 | 60 | 1021.2 |
| 20260903145725 | 87 | 337 | 2.0 | 3.0 | 0.00 | 0.01 | 0.01 | 60 | 1021.4 |
| 20260903145603 | 87 | 332 | 2.0 | 3.0 | 0.00 | 0.01 | 0.01 | 62 | 1021.4 |
| 20260903145503 | 87 | 326 | 2.0 | 3.0 | 0.00 | 0.01 | 0.01 | 59 | 1021.4 |
| 20260903145403 | 87 | 328 | 2.0 | 3.0 | 0.00 | 0.01 | 0.01 | 60 | 1021.3 |
| 20260903145305 | 87 | 329 | 2.0 | 3.0 | 0.00 | 0.01 | 0.01 | 62 | 1021.4 |
| 20260903145203 | 87 | 331 | 2.0 | 3.0 | 0.00 | 0.01 | 0.01 | 60 | 1021.3 |
| 20260903145103 | 87 | 333 | 2.0 | 6.0 | 0.00 | 0.01 | 0.01 | 60 | 1021.3 |
| 20260903145003 | 87 | 332 | 2.0 | 6.0 | 0.00 | 0.01 | 0.01 | 60 | 1021.3 |
| 20260903144902 | 87 | 329 | 2.0 | 6.0 | 0.00 | 0.01 | 0.01 | 59 | 1021.4 |
| 20260903144802 | 87 | 330 | 2.0 | 6.0 | 0.00 | 0.01 | 0.01 | 61 | 1021.5 |
| 20260903144703 | 87 | 331 | 2.0 | 6.0 | 0.00 | 0.01 | 0.01 | 60 | 1021.4 |
| 20260903144603 | 87 | 331 | 2.0 | 6.0 | 0.00 | 0.01 | 0.01 | 60 | 1021.3 |
| 20260903144503 | 87 | 324 | 2.0 | 6.0 | 0.00 | 0.01 | 0.01 | 60 | 1021.4 |
| 20260903144403 | 87 | 325 | 2.0 | 6.0 | 0.00 | 0.01 | 0.01 | 62 | 1021.4 |
| 20260903144303 | 87 | 328 | 2.0 | 6.0 | 0.00 | 0.01 | 0.01 | 61 | 1021.3 |
| 20260903144203 | 87 | 328 | 2.0 | 6.0 | 0.00 | 0.01 | 0.01 | 60 | 1021.5 |
| 20260903144103 | 87 | 328 | 2.0 | 6.0 | 0.00 | 0.01 | 0.01 | 60 | 1021.5 |
| 20260903144003 | 86 | 329 | 2.0 | 4.0 | 0.00 | 0.01 | 0.01 | 60 | 1021.4 |
| 20260903143903 | 86 | 329 | 2.0 | 4.0 | 0.00 | 0.01 | 0.01 | 59 | 1021.4 |
| 20260903143803 | 87 | 324 | 2.0 | 4.0 | 0.00 | 0.01 | 0.01 | 59 | 1021.5 |
| 20260903143702 | 87 | 324 | 2.0 | 4.0 | 0.00 | 0.01 | 0.01 | 59 | 1021.3 |
| 20260903143603 | 87 | 322 | 2.0 | 4.0 | 0.00 | 0.01 | 0.01 | 59 | 1021.4 |
| 20260903143503 | 87 | 325 | 2.0 | 4.0 | 0.00 | 0.01 | 0.01 | 60 | 1021.6 |
| 20260903143403 | 87 | 333 | 2.0 | 4.0 | 0.00 | 0.01 | 0.01 | 62 | 1021.5 |
| 20260903143303 | 87 | 331 | 2.0 | 4.0 | 0.00 | 0.01 | 0.01 | 59 | 1021.3 |
| 20260903143203 | 87 | 327 | 2.0 | 4.0 | 0.00 | 0.01 | 0.01 | 62 | 1021.6 |
| 20260903143103 | 87 | 324 | 2.0 | 4.0 | 0.00 | 0.01 | 0.01 | 61 | 1021.5 |
| 20260903143003 | 87 | 325 | 2.0 | 4.0 | 0.00 | 0.01 | 0.01 | 61 | 1021.6 |
| 20260903142903 | 87 | 325 | 2.0 | 4.0 | 0.00 | 0.01 | 0.01 | 61 | 1021.6 |
| 20260903142803 | 87 | 325 | 2.0 | 4.0 | 0.00 | 0.01 | 0.01 | 58 | 1021.5 |
| 20260903142703 | 87 | 335 | 2.0 | 3.0 | 0.00 | 0.01 | 0.01 | 60 | 1021.4 |
| 20260903142624 | 87 | 336 | 2.0 | 4.0 | 0.00 | 0.01 | 0.01 | 59 | 1021.5 |
| 20260903142503 | 88 | 336 | 2.0 | 4.0 | 0.00 | 0.01 | 0.01 | 59 | 1021.5 |
| 20260903142424 | 88 | 337 | 2.0 | 4.0 | 0.00 | 0.01 | 0.01 | 58 | 1021.5 |
| 20260903142306 | 88 | 339 | 2.0 | 4.0 | 0.00 | 0.01 | 0.01 | 59 | 1021.5 |
| 20260903142224 | 87 | 342 | 2.0 | 4.0 | 0.00 | 0.01 | 0.01 | 60 | 1021.5 |
| 20260903142103 | 87 | 349 | 2.0 | 4.0 | 0.00 | 0.01 | 0.01 | 60 | 1021.7 |
| 20260903142003 | 87 | 351 | 2.0 | 4.0 | 0.00 | 0.01 | 0.01 | 59 | 1021.5 |
| 20260903141903 | 87 | 352 | 2.0 | 4.0 | 0.00 | 0.01 | 0.01 | 59 | 1021.4 |
| 20260903141824 | 87 | 352 | 2.0 | 4.0 | 0.00 | 0.01 | 0.01 | 59 | 1021.6 |
| 20260903141702 | 87 | 355 | 2.0 | 4.0 | 0.00 | 0.01 | 0.01 | 60 | 1021.6 |
| 20260903141603 | 87 | 355 | 2.0 | 4.0 | 0.00 | 0.01 | 0.01 | 59 | 1021.5 |
| 20260903141503 | 86 | 358 | 2.0 | 4.0 | 0.00 | 0.01 | 0.01 | 60 | 1021.4 |
| 20260903141403 | 87 | 359 | 2.0 | 4.0 | 0.00 | 0.01 | 0.01 | 59 | 1021.4 |
| 20260903141303 | 87 | 351 | 2.0 | 4.0 | 0.00 | 0.01 | 0.01 | 61 | 1021.4 |
| 20260903141203 | 87 | 352 | 2.0 | 4.0 | 0.00 | 0.01 | 0.01 | 59 | 1021.4 |
| 20260903141103 | 87 | 347 | 2.0 | 4.0 | 0.00 | 0.01 | 0.01 | 61 | 1021.5 |
| 20260903141003 | 87 | 347 | 2.0 | 4.0 | 0.00 | 0.01 | 0.01 | 58 | 1021.6 |
| 20260903140902 | 87 | 349 | 2.0 | 4.0 | 0.00 | 0.01 | 0.01 | 60 | 1021.5 |
| 20260903140803 | 87 | 348 | 2.0 | 4.0 | 0.00 | 0.01 | 0.01 | 59 | 1021.5 |
| 20260903140703 | 87 | 348 | 2.0 | 4.0 | 0.00 | 0.01 | 0.01 | 59 | 1021.5 |
| 20260903140603 | 87 | 348 | 2.0 | 4.0 | 0.00 | 0.01 | 0.01 | 59 | 1021.7 |
| 20260903140503 | 87 | 350 | 2.0 | 4.0 | 0.00 | 0.01 | 0.01 | 59 | 1021.5 |
| 20260903140403 | 87 | 351 | 2.0 | 6.0 | 0.00 | 0.01 | 0.01 | 57 | 1021.5 |
| 20260903140303 | 87 | 351 | 2.0 | 6.0 | 0.00 | 0.01 | 0.01 | 58 | 1021.4 |
| 20260903140203 | 87 | 358 | 2.0 | 6.0 | 0.00 | 0.01 | 0.01 | 58 | 1021.5 |
| 20260903140003 | 87 | 357 | 2.0 | 6.0 | 0.00 | 0.01 | 0.01 | 58 | 1021.4 |
| 20260903135903 | 86 | 357 | 2.0 | 6.0 | 0.00 | 0.01 | 0.01 | 59 | 1021.5 |
| 20260903135803 | 86 | 357 | 2.0 | 6.0 | 0.00 | 0.01 | 0.01 | 58 | 1021.7 |
| 20260903135703 | 86 | 357 | 2.0 | 6.0 | 0.00 | 0.01 | 0.01 | 57 | 1021.5 |
| 20260903135603 | 86 | 357 | 2.0 | 6.0 | 0.00 | 0.01 | 0.01 | 58 | 1021.5 |
| 20260903135503 | 86 | 356 | 2.0 | 6.0 | 0.00 | 0.01 | 0.01 | 58 | 1021.4 |
| 20260903135403 | 86 | 356 | 2.0 | 6.0 | 0.00 | 0.01 | 0.01 | 58 | 1021.5 |
| 20260903135306 | 87 | 357 | 2.0 | 4.0 | 0.00 | 0.01 | 0.01 | 58 | 1021.4 |
| 20260903135203 | 87 | 356 | 2.0 | 4.0 | 0.00 | 0.01 | 0.01 | 59 | 1021.8 |
| 20260903135103 | 87 | 358 | 2.0 | 4.0 | 0.00 | 0.01 | 0.01 | 58 | 1021.7 |
| 20260903135003 | 87 | 358 | 2.0 | 4.0 | 0.00 | 0.01 | 0.01 | 59 | 1021.5 |
| 20260903134903 | 87 | 355 | 1.0 | 4.0 | 0.00 | 0.01 | 0.01 | 62 | 1021.5 |
| 20260903134825 | 86 | 355 | 2.0 | 4.0 | 0.00 | 0.01 | 0.01 | 61 | 1021.6 |
| 20260903134703 | 86 | 354 | 2.0 | 4.0 | 0.00 | 0.01 | 0.01 | 61 | 1021.5 |
| 20260903134603 | 86 | 354 | 2.0 | 4.0 | 0.00 | 0.01 | 0.01 | 61 | 1021.7 |
| 20260903134524 | 86 | 355 | 2.0 | 4.0 | 0.00 | 0.01 | 0.01 | 58 | 1021.8 |
| 20260903134403 | 87 | 356 | 2.0 | 3.0 | 0.00 | 0.01 | 0.01 | 61 | 1021.5 |
| 20260903134303 | 87 | 355 | 2.0 | 3.0 | 0.00 | 0.01 | 0.01 | 59 | 1021.7 |
| 20260903134203 | 86 | 354 | 2.0 | 3.0 | 0.00 | 0.01 | 0.01 | 60 | 1021.5 |
| 20260903134103 | 86 | 356 | 2.0 | 6.0 | 0.00 | 0.01 | 0.01 | 60 | 1021.5 |
| 20260903134003 | 86 | 357 | 2.0 | 6.0 | 0.00 | 0.01 | 0.01 | 59 | 1021.4 |
| 20260903133903 | 85 | 356 | 2.0 | 6.0 | 0.00 | 0.01 | 0.01 | 60 | 1021.6 |
| 20260903133803 | 85 | 358 | 2.0 | 6.0 | 0.00 | 0.01 | 0.01 | 60 | 1021.7 |
| 20260903133703 | 85 | 358 | 2.0 | 6.0 | 0.00 | 0.01 | 0.01 | 61 | 1021.5 |
| 20260903133603 | 85 | 359 | 2.0 | 6.0 | 0.00 | 0.01 | 0.01 | 61 | 1021.7 |
| 20260903133503 | 85 | 356 | 2.0 | 6.0 | 0.00 | 0.01 | 0.01 | 61 | 1021.6 |
| 20260903133403 | 85 | 357 | 2.0 | 6.0 | 0.00 | 0.01 | 0.01 | 60 | 1021.8 |
| 20260903133303 | 85 | 360 | 2.0 | 6.0 | 0.00 | 0.01 | 0.01 | 61 | 1021.6 |
| 20260903133203 | 85 | 359 | 2.0 | 6.0 | 0.00 | 0.01 | 0.01 | 60 | 1021.6 |
| 20260903133124 | 85 | 2 | 2.0 | 4.0 | 0.00 | 0.01 | 0.01 | 61 | 1021.6 |
| 20260903133003 | 85 | 3 | 2.0 | 4.0 | 0.00 | 0.01 | 0.01 | 62 | 1021.6 |
| 20260903132903 | 85 | 5 | 2.0 | 4.0 | 0.00 | 0.01 | 0.01 | 63 | 1021.8 |
| 20260903132803 | 85 | 3 | 2.0 | 4.0 | 0.00 | 0.01 | 0.01 | 61 | 1021.7 |
| 20260903132724 | 85 | 1 | 2.0 | 4.0 | 0.00 | 0.01 | 0.01 | 62 | 1021.7 |
| 20260903132603 | 85 | 360 | 2.0 | 4.0 | 0.00 | 0.01 | 0.01 | 61 | 1021.7 |
| 20260903132503 | 85 | 3 | 2.0 | 4.0 | 0.00 | 0.01 | 0.01 | 63 | 1021.7 |
| 20260903132403 | 85 | 358 | 2.0 | 4.0 | 0.00 | 0.01 | 0.01 | 61 | 1021.7 |
| 20260903132306 | 85 | 356 | 1.0 | 3.0 | 0.00 | 0.01 | 0.01 | 61 | 1021.5 |
| 20260903132203 | 86 | 357 | 1.0 | 3.0 | 0.00 | 0.01 | 0.01 | 60 | 1021.7 |
| 20260903132124 | 86 | 353 | 1.0 | 3.0 | 0.00 | 0.01 | 0.01 | 62 | 1021.8 |
| 20260903132024 | 86 | 353 | 1.0 | 3.0 | 0.00 | 0.01 | 0.01 | 62 | 1021.8 |
| 20260903131903 | 85 | 341 | 2.0 | 4.0 | 0.00 | 0.01 | 0.01 | 63 | 1021.9 |
| 20260903131803 | 85 | 342 | 2.0 | 4.0 | 0.00 | 0.01 | 0.01 | 60 | 1021.7 |
| 20260903131703 | 85 | 342 | 2.0 | 4.0 | 0.00 | 0.01 | 0.01 | 60 | 1021.7 |
| 20260903131603 | 85 | 344 | 2.0 | 4.0 | 0.00 | 0.01 | 0.01 | 61 | 1021.8 |
| 20260903131503 | 85 | 347 | 2.0 | 4.0 | 0.00 | 0.01 | 0.01 | 60 | 1021.7 |
| 20260903131403 | 85 | 349 | 2.0 | 4.0 | 0.00 | 0.01 | 0.01 | 62 | 1021.7 |
| 20260903131303 | 85 | 348 | 2.0 | 4.0 | 0.00 | 0.01 | 0.01 | 61 | 1021.8 |
| 20260903131203 | 85 | 342 | 2.0 | 4.0 | 0.00 | 0.01 | 0.01 | 60 | 1021.7 |
| 20260903131103 | 85 | 341 | 2.0 | 4.0 | 0.00 | 0.01 | 0.01 | 62 | 1021.7 |
| 20260903131003 | 85 | 340 | 2.0 | 4.0 | 0.00 | 0.01 | 0.01 | 60 | 1021.6 |
| 20260903130903 | 85 | 350 | 2.0 | 3.0 | 0.00 | 0.01 | 0.01 | 61 | 1021.9 |
| 20260903130803 | 85 | 345 | 2.0 | 3.0 | 0.00 | 0.01 | 0.01 | 62 | 1021.6 |
| 20260903130703 | 85 | 342 | 2.0 | 3.0 | 0.00 | 0.01 | 0.01 | 62 | 1021.8 |
| 20260903130603 | 85 | 339 | 2.0 | 3.0 | 0.00 | 0.01 | 0.01 | 64 | 1021.7 |
| 20260903130503 | 85 | 339 | 2.0 | 3.0 | 0.00 | 0.01 | 0.01 | 64 | 1021.7 |
| 20260903130403 | 84 | 337 | 2.0 | 3.0 | 0.00 | 0.01 | 0.01 | 62 | 1021.8 |
| 20260903130303 | 84 | 338 | 2.0 | 3.0 | 0.00 | 0.01 | 0.01 | 63 | 1021.9 |
| 20260903130204 | 84 | 339 | 2.0 | 4.0 | 0.00 | 0.01 | 0.01 | 61 | 1021.6 |
| 20260903130003 | 84 | 340 | 2.0 | 4.0 | 0.00 | 0.01 | 0.01 | 64 | 1021.9 |
| 20260903125903 | 83 | 328 | 2.0 | 4.0 | 0.00 | 0.01 | 0.01 | 64 | 1022.0 |
| 20260903125803 | 83 | 321 | 2.0 | 4.0 | 0.00 | 0.01 | 0.01 | 65 | 1021.7 |
| 20260903125703 | 83 | 318 | 2.0 | 4.0 | 0.00 | 0.01 | 0.01 | 64 | 1021.9 |
| 20260903125603 | 83 | 317 | 2.0 | 4.0 | 0.00 | 0.01 | 0.01 | 64 | 1021.8 |
| 20260903125503 | 83 | 315 | 2.0 | 4.0 | 0.00 | 0.01 | 0.01 | 65 | 1021.7 |
| 20260903125403 | 83 | 308 | 2.0 | 4.0 | 0.00 | 0.01 | 0.01 | 63 | 1021.9 |
| 20260903125305 | 83 | 308 | 2.0 | 4.0 | 0.00 | 0.01 | 0.01 | 63 | 1021.9 |
| 20260903125203 | 83 | 299 | 2.0 | 4.0 | 0.00 | 0.01 | 0.01 | 63 | 1021.8 |
| 20260903125103 | 83 | 288 | 2.0 | 4.0 | 0.00 | 0.01 | 0.01 | 66 | 1021.9 |
| 20260903125003 | 83 | 286 | 2.0 | 4.0 | 0.00 | 0.01 | 0.01 | 66 | 1021.9 |
| 20260903124903 | 83 | 282 | 3.0 | 4.0 | 0.00 | 0.01 | 0.01 | 64 | 1021.9 |
| 20260903124824 | 83 | 281 | 2.0 | 4.0 | 0.00 | 0.01 | 0.01 | 66 | 1021.9 |
| 20260903124703 | 83 | 270 | 2.0 | 4.0 | 0.00 | 0.01 | 0.01 | 64 | 1021.9 |
| 20260903124603 | 83 | 232 | 2.0 | 4.0 | 0.00 | 0.01 | 0.01 | 65 | 1022.0 |
| 20260903124503 | 83 | 199 | 2.0 | 4.0 | 0.00 | 0.01 | 0.01 | 65 | 1022.0 |
| 20260903124403 | 83 | 162 | 3.0 | 4.0 | 0.00 | 0.01 | 0.01 | 65 | 1022.0 |
| 20260903124303 | 83 | 144 | 3.0 | 4.0 | 0.00 | 0.01 | 0.01 | 66 | 1022.0 |
| 20260903124203 | 83 | 135 | 3.0 | 4.0 | 0.00 | 0.01 | 0.01 | 67 | 1021.9 |
| 20260903124103 | 83 | 135 | 3.0 | 4.0 | 0.00 | 0.01 | 0.01 | 67 | 1021.9 |
| 20260903124003 | 83 | 129 | 3.0 | 4.0 | 0.00 | 0.01 | 0.01 | 66 | 1022.0 |
| 20260903123903 | 83 | 126 | 3.0 | 4.0 | 0.00 | 0.01 | 0.01 | 64 | 1021.7 |
| 20260903123803 | 83 | 126 | 3.0 | 4.0 | 0.00 | 0.01 | 0.01 | 66 | 1021.9 |
| 20260903123703 | 83 | 127 | 3.0 | 4.0 | 0.00 | 0.01 | 0.01 | 66 | 1022.1 |
| 20260903123603 | 83 | 126 | 3.0 | 4.0 | 0.00 | 0.01 | 0.01 | 66 | 1022.0 |
| 20260903123524 | 83 | 126 | 3.0 | 4.0 | 0.00 | 0.01 | 0.01 | 65 | 1022.0 |
| 20260903123403 | 83 | 126 | 2.0 | 4.0 | 0.00 | 0.01 | 0.01 | 64 | 1021.9 |
| 20260903123303 | 83 | 126 | 2.0 | 4.0 | 0.00 | 0.01 | 0.01 | 65 | 1022.0 |
| 20260903123203 | 83 | 126 | 2.0 | 4.0 | 0.00 | 0.01 | 0.01 | 67 | 1022.0 |
| 20260903123103 | 83 | 126 | 2.0 | 4.0 | 0.00 | 0.01 | 0.01 | 67 | 1021.9 |
| 20260903123003 | 83 | 126 | 2.0 | 4.0 | 0.00 | 0.01 | 0.01 | 68 | 1022.0 |
| 20260903122903 | 83 | 126 | 2.0 | 4.0 | 0.00 | 0.01 | 0.01 | 64 | 1021.8 |
| 20260903122803 | 83 | 126 | 2.0 | 4.0 | 0.00 | 0.01 | 0.01 | 63 | 1022.0 |
| 20260903122703 | 84 | 126 | 2.0 | 4.0 | 0.00 | 0.01 | 0.01 | 63 | 1021.9 |
| 20260903122603 | 84 | 126 | 2.0 | 4.0 | 0.00 | 0.01 | 0.01 | 63 | 1021.8 |
| 20260903122503 | 84 | 126 | 2.0 | 4.0 | 0.00 | 0.01 | 0.01 | 66 | 1021.8 |
| 20260903122424 | 84 | 126 | 2.0 | 4.0 | 0.00 | 0.01 | 0.01 | 63 | 1021.8 |
| 20260903122305 | 84 | 126 | 2.0 | 4.0 | 0.00 | 0.01 | 0.01 | 62 | 1021.8 |
| 20260903122224 | 84 | 126 | 2.0 | 4.0 | 0.00 | 0.01 | 0.01 | 65 | 1022.0 |
| 20260903122103 | 83 | 126 | 2.0 | 4.0 | 0.00 | 0.01 | 0.01 | 65 | 1021.9 |
| 20260903122003 | 83 | 126 | 3.0 | 4.0 | 0.00 | 0.01 | 0.01 | 65 | 1021.9 |
| 20260903121903 | 83 | 126 | 3.0 | 6.0 | 0.00 | 0.01 | 0.01 | 65 | 1021.9 |
| 20260903121803 | 82 | 126 | 3.0 | 6.0 | 0.00 | 0.01 | 0.01 | 65 | 1021.9 |
| 20260903121703 | 82 | 126 | 3.0 | 6.0 | 0.00 | 0.01 | 0.01 | 65 | 1022.1 |
| 20260903121603 | 82 | 126 | 3.0 | 6.0 | 0.00 | 0.01 | 0.01 | 65 | 1021.8 |
| 20260903121503 | 82 | 126 | 3.0 | 6.0 | 0.00 | 0.01 | 0.01 | 63 | 1021.9 |
| 20260903121424 | 83 | 126 | 3.0 | 6.0 | 0.00 | 0.01 | 0.01 | 63 | 1021.9 |
| 20260903121324 | 83 | 126 | 3.0 | 6.0 | 0.00 | 0.01 | 0.01 | 64 | 1022.0 |
| 20260903121203 | 82 | 126 | 3.0 | 6.0 | 0.00 | 0.01 | 0.01 | 64 | 1022.0 |
| 20260903121103 | 82 | 126 | 3.0 | 6.0 | 0.00 | 0.01 | 0.01 | 65 | 1022.0 |
| 20260903121024 | 82 | 126 | 3.0 | 6.0 | 0.00 | 0.01 | 0.01 | 66 | 1021.9 |
| 20260903120903 | 82 | 126 | 3.0 | 6.0 | 0.00 | 0.01 | 0.01 | 64 | 1022.1 |
| 20260903120803 | 83 | 125 | 3.0 | 6.0 | 0.00 | 0.01 | 0.01 | 65 | 1022.2 |
| 20260903120724 | 82 | 125 | 3.0 | 6.0 | 0.00 | 0.01 | 0.01 | 65 | 1022.1 |
| 20260903120603 | 82 | 125 | 2.0 | 6.0 | 0.00 | 0.01 | 0.01 | 65 | 1022.1 |
| 20260903120503 | 82 | 125 | 2.0 | 6.0 | 0.00 | 0.01 | 0.01 | 69 | 1022.1 |
| 20260903120403 | 82 | 125 | 2.0 | 6.0 | 0.00 | 0.01 | 0.01 | 67 | 1022.2 |
| 20260903120324 | 82 | 125 | 2.0 | 6.0 | 0.00 | 0.01 | 0.01 | 65 | 1022.0 |
| 20260903120203 | 83 | 125 | 2.0 | 3.0 | 0.00 | 0.01 | 0.01 | 65 | 1022.0 |
| 20260903120124 | 83 | 125 | 2.0 | 3.0 | 0.00 | 0.01 | 0.01 | 65 | 1022.1 |
| 20260903120003 | 84 | 125 | 1.0 | 3.0 | 0.00 | 0.01 | 0.01 | 66 | 1022.3 |
| 20260903115903 | 84 | 125 | 2.0 | 4.0 | 0.00 | 0.01 | 0.01 | 63 | 1022.1 |
| 20260903115824 | 84 | 125 | 1.0 | 4.0 | 0.00 | 0.01 | 0.01 | 61 | 1022.1 |
| 20260903115703 | 84 | 125 | 1.0 | 4.0 | 0.00 | 0.01 | 0.01 | 61 | 1022.0 |
| 20260903115603 | 84 | 126 | 1.0 | 4.0 | 0.00 | 0.01 | 0.01 | 60 | 1022.0 |
| 20260903115503 | 84 | 126 | 1.0 | 4.0 | 0.00 | 0.01 | 0.01 | 61 | 1022.0 |
| 20260903115403 | 83 | 126 | 1.0 | 4.0 | 0.00 | 0.01 | 0.01 | 61 | 1022.0 |
| 20260903115305 | 83 | 126 | 1.0 | 4.0 | 0.00 | 0.01 | 0.01 | 60 | 1022.1 |
| 20260903115224 | 83 | 126 | 1.0 | 4.0 | 0.00 | 0.01 | 0.01 | 61 | 1022.0 |
| 20260903115125 | 83 | 126 | 1.0 | 4.0 | 0.00 | 0.01 | 0.01 | 62 | 1022.2 |
| 20260903115003 | 83 | 126 | 1.0 | 4.0 | 0.00 | 0.01 | 0.01 | 60 | 1022.2 |
| 20260903114903 | 83 | 126 | 1.0 | 4.0 | 0.00 | 0.01 | 0.01 | 61 | 1022.2 |
| 20260903114803 | 83 | 126 | 1.0 | 3.0 | 0.00 | 0.01 | 0.01 | 62 | 1022.1 |
| 20260903114703 | 82 | 126 | 1.0 | 3.0 | 0.00 | 0.01 | 0.01 | 64 | 1022.3 |
| 20260903114603 | 82 | 126 | 1.0 | 3.0 | 0.00 | 0.01 | 0.01 | 65 | 1022.1 |
| 20260903114503 | 82 | 126 | 1.0 | 3.0 | 0.00 | 0.01 | 0.01 | 64 | 1022.0 |
| 20260903114403 | 82 | 126 | 1.0 | 3.0 | 0.00 | 0.01 | 0.01 | 64 | 1022.3 |
| 20260903114303 | 81 | 126 | 1.0 | 3.0 | 0.00 | 0.01 | 0.01 | 63 | 1022.2 |
| 20260903114224 | 81 | 126 | 1.0 | 3.0 | 0.00 | 0.01 | 0.01 | 63 | 1022.2 |
| 20260903114103 | 82 | 126 | 1.0 | 3.0 | 0.00 | 0.01 | 0.01 | 62 | 1022.2 |
| 20260903114003 | 82 | 126 | 1.0 | 3.0 | 0.00 | 0.01 | 0.01 | 61 | 1022.2 |
| 20260903113903 | 81 | 126 | 1.0 | 3.0 | 0.00 | 0.01 | 0.01 | 65 | 1022.3 |
| 20260903113803 | 81 | 126 | 1.0 | 3.0 | 0.00 | 0.01 | 0.01 | 63 | 1022.1 |
| 20260903113703 | 81 | 126 | 2.0 | 3.0 | 0.00 | 0.01 | 0.01 | 63 | 1022.2 |
| 20260903113603 | 81 | 126 | 2.0 | 3.0 | 0.00 | 0.01 | 0.01 | 64 | 1022.2 |
| 20260903113524 | 81 | 126 | 1.0 | 3.0 | 0.00 | 0.01 | 0.01 | 63 | 1022.1 |
| 20260903113403 | 81 | 126 | 2.0 | 3.0 | 0.00 | 0.01 | 0.01 | 64 | 1022.2 |
| 20260903113303 | 80 | 126 | 2.0 | 3.0 | 0.00 | 0.01 | 0.01 | 65 | 1022.1 |
| 20260903113224 | 80 | 126 | 2.0 | 3.0 | 0.00 | 0.01 | 0.01 | 65 | 1022.1 |
| 20260903113103 | 81 | 125 | 2.0 | 3.0 | 0.00 | 0.01 | 0.01 | 62 | 1022.2 |
| 20260903113024 | 81 | 125 | 2.0 | 3.0 | 0.00 | 0.01 | 0.01 | 62 | 1022.2 |
| 20260903112903 | 81 | 125 | 2.0 | 3.0 | 0.00 | 0.01 | 0.01 | 62 | 1022.2 |
| 20260903112803 | 81 | 125 | 1.0 | 3.0 | 0.00 | 0.01 | 0.01 | 62 | 1022.1 |
| 20260903112703 | 80 | 125 | 1.0 | 3.0 | 0.00 | 0.01 | 0.01 | 64 | 1022.2 |
| 20260903112603 | 80 | 125 | 1.0 | 3.0 | 0.00 | 0.01 | 0.01 | 63 | 1022.4 |
| 20260903112503 | 80 | 125 | 1.0 | 3.0 | 0.00 | 0.01 | 0.01 | 63 | 1022.2 |
| 20260903112403 | 80 | 125 | 2.0 | 3.0 | 0.00 | 0.01 | 0.01 | 63 | 1022.3 |
| 20260903112324 | 80 | 125 | 2.0 | 3.0 | 0.00 | 0.01 | 0.01 | 64 | 1022.4 |
| 20260903112203 | 80 | 125 | 2.0 | 3.0 | 0.00 | 0.01 | 0.01 | 63 | 1022.2 |
| 20260903112103 | 80 | 125 | 1.0 | 3.0 | 0.00 | 0.01 | 0.01 | 64 | 1022.3 |
| 20260903112003 | 81 | 125 | 1.0 | 3.0 | 0.00 | 0.01 | 0.01 | 62 | 1022.4 |
| 20260903111924 | 80 | 125 | 1.0 | 3.0 | 0.00 | 0.01 | 0.01 | 66 | 1022.4 |
| 20260903111803 | 80 | 125 | 1.0 | 3.0 | 0.00 | 0.01 | 0.01 | 65 | 1022.4 |
| 20260903111703 | 80 | 125 | 1.0 | 3.0 | 0.00 | 0.01 | 0.01 | 64 | 1022.4 |
| 20260903111624 | 80 | 125 | 1.0 | 3.0 | 0.00 | 0.01 | 0.01 | 63 | 1022.4 |
| 20260903111503 | 81 | 126 | 1.0 | 2.0 | 0.00 | 0.01 | 0.01 | 65 | 1022.4 |
| 20260903111403 | 81 | 126 | 1.0 | 2.0 | 0.00 | 0.01 | 0.01 | 62 | 1022.4 |
| 20260903111303 | 82 | 126 | 1.0 | 2.0 | 0.00 | 0.01 | 0.01 | 63 | 1022.3 |
| 20260903111203 | 82 | 126 | 1.0 | 2.0 | 0.00 | 0.01 | 0.01 | 62 | 1022.5 |
| 20260903111103 | 82 | 126 | 1.0 | 2.0 | 0.00 | 0.01 | 0.01 | 62 | 1022.4 |
| 20260903111024 | 82 | 126 | 1.0 | 2.0 | 0.00 | 0.01 | 0.01 | 62 | 1022.4 |
| 20260903110924 | 83 | 126 | 1.0 | 2.0 | 0.00 | 0.01 | 0.01 | 63 | 1022.7 |
| 20260903110824 | 83 | 125 | 1.0 | 2.0 | 0.00 | 0.01 | 0.01 | 61 | 1022.4 |
| 20260903110703 | 82 | 125 | 1.0 | 2.0 | 0.00 | 0.01 | 0.01 | 64 | 1022.6 |
| 20260903110603 | 82 | 125 | 1.0 | 2.0 | 0.00 | 0.01 | 0.01 | 60 | 1022.4 |
| 20260903110524 | 82 | 125 | 1.0 | 2.0 | 0.00 | 0.01 | 0.01 | 63 | 1022.4 |
| 20260903110403 | 82 | 125 | 1.0 | 2.0 | 0.00 | 0.01 | 0.01 | 62 | 1022.4 |
| 20260903110303 | 81 | 125 | 1.0 | 2.0 | 0.00 | 0.01 | 0.01 | 64 | 1022.2 |
| 20260903110203 | 81 | 125 | 1.0 | 2.0 | 0.00 | 0.01 | 0.01 | 63 | 1022.5 |
| 20260903110003 | 80 | 125 | 1.0 | 3.0 | 0.00 | 0.01 | 0.01 | 65 | 1022.3 |
| 20260903105903 | 80 | 125 | 1.0 | 3.0 | 0.00 | 0.01 | 0.01 | 63 | 1022.4 |
| 20260903105803 | 80 | 125 | 1.0 | 3.0 | 0.00 | 0.01 | 0.01 | 64 | 1022.4 |
| 20260903105724 | 80 | 125 | 1.0 | 3.0 | 0.00 | 0.01 | 0.01 | 64 | 1022.4 |
| 20260903105603 | 80 | 125 | 1.0 | 3.0 | 0.00 | 0.01 | 0.01 | 67 | 1022.3 |
| 20260903105503 | 80 | 125 | 1.0 | 3.0 | 0.00 | 0.01 | 0.01 | 66 | 1022.4 |
| 20260903105403 | 80 | 125 | 1.0 | 3.0 | 0.00 | 0.01 | 0.01 | 65 | 1022.6 |
| 20260903105324 | 80 | 125 | 1.0 | 3.0 | 0.00 | 0.01 | 0.01 | 65 | 1022.6 |
| 20260903105203 | 80 | 125 | 1.0 | 3.0 | 0.00 | 0.01 | 0.01 | 66 | 1022.4 |
| 20260903105103 | 79 | 125 | 1.0 | 3.0 | 0.00 | 0.01 | 0.01 | 65 | 1022.4 |
| 20260903105003 | 79 | 125 | 1.0 | 3.0 | 0.00 | 0.01 | 0.01 | 66 | 1022.4 |
| 20260903104903 | 78 | 125 | 1.0 | 3.0 | 0.00 | 0.01 | 0.01 | 66 | 1022.5 |
| 20260903104803 | 78 | 125 | 1.0 | 2.0 | 0.00 | 0.01 | 0.01 | 70 | 1022.5 |
| 20260903104724 | 78 | 125 | 1.0 | 2.0 | 0.00 | 0.01 | 0.01 | 70 | 1022.4 |
| 20260903104624 | 78 | 125 | 1.0 | 2.0 | 0.00 | 0.01 | 0.01 | 68 | 1022.4 |
| 20260903104503 | 78 | 125 | 1.0 | 2.0 | 0.00 | 0.01 | 0.01 | 68 | 1022.4 |
| 20260903104403 | 77 | 125 | 1.0 | 3.0 | 0.00 | 0.01 | 0.01 | 69 | 1022.3 |
| 20260903104303 | 77 | 125 | 1.0 | 3.0 | 0.00 | 0.01 | 0.01 | 72 | 1022.5 |
| 20260903104203 | 78 | 125 | 1.0 | 3.0 | 0.00 | 0.01 | 0.01 | 71 | 1022.7 |
| 20260903104103 | 78 | 125 | 1.0 | 3.0 | 0.00 | 0.01 | 0.01 | 71 | 1022.7 |
| 20260903104003 | 78 | 125 | 1.0 | 3.0 | 0.00 | 0.01 | 0.01 | 71 | 1022.5 |
| 20260903103903 | 78 | 125 | 1.0 | 3.0 | 0.00 | 0.01 | 0.01 | 72 | 1022.5 |
| 20260903103803 | 77 | 125 | 1.0 | 3.0 | 0.00 | 0.01 | 0.01 | 71 | 1022.5 |
| 20260903103703 | 77 | 125 | 1.0 | 3.0 | 0.00 | 0.01 | 0.01 | 72 | 1022.6 |
| 20260903103603 | 77 | 125 | 1.0 | 3.0 | 0.00 | 0.01 | 0.01 | 71 | 1022.5 |
| 20260903103503 | 77 | 125 | 1.0 | 3.0 | 0.00 | 0.01 | 0.01 | 70 | 1022.7 |
| 20260903103403 | 76 | 125 | 1.0 | 3.0 | 0.00 | 0.01 | 0.01 | 71 | 1022.7 |
| 20260903103303 | 76 | 125 | 1.0 | 2.0 | 0.00 | 0.01 | 0.01 | 73 | 1022.7 |
| 20260903103203 | 76 | 125 | 1.0 | 3.0 | 0.00 | 0.01 | 0.01 | 73 | 1022.8 |
| 20260903103103 | 76 | 125 | 1.0 | 3.0 | 0.00 | 0.01 | 0.01 | 74 | 1022.8 |
| 20260903103003 | 75 | 125 | 1.0 | 3.0 | 0.00 | 0.01 | 0.01 | 74 | 1022.8 |
| 20260903102903 | 75 | 125 | 2.0 | 3.0 | 0.00 | 0.01 | 0.01 | 75 | 1022.7 |
| 20260903102803 | 75 | 125 | 2.0 | 3.0 | 0.00 | 0.01 | 0.01 | 74 | 1022.7 |
| 20260903102703 | 75 | 125 | 2.0 | 3.0 | 0.00 | 0.01 | 0.01 | 76 | 1022.8 |
| 20260903102603 | 75 | 125 | 2.0 | 3.0 | 0.00 | 0.01 | 0.01 | 76 | 1022.8 |
| 20260903102524 | 75 | 125 | 2.0 | 3.0 | 0.00 | 0.01 | 0.01 | 75 | 1022.6 |
| 20260903102403 | 75 | 122 | 2.0 | 3.0 | 0.00 | 0.01 | 0.01 | 76 | 1022.8 |
| 20260903102324 | 75 | 120 | 2.0 | 3.0 | 0.00 | 0.01 | 0.01 | 75 | 1022.7 |
| 20260903102203 | 75 | 118 | 2.0 | 3.0 | 0.00 | 0.01 | 0.01 | 75 | 1022.9 |
| 20260903102103 | 74 | 127 | 2.0 | 3.0 | 0.00 | 0.01 | 0.01 | 75 | 1022.8 |
| 20260903102003 | 74 | 133 | 2.0 | 3.0 | 0.00 | 0.01 | 0.01 | 77 | 1023.0 |
| 20260903101903 | 74 | 131 | 2.0 | 3.0 | 0.00 | 0.01 | 0.01 | 77 | 1022.7 |
| 20260903101803 | 74 | 132 | 1.0 | 3.0 | 0.00 | 0.01 | 0.01 | 78 | 1023.0 |
| 20260903101703 | 74 | 132 | 1.0 | 3.0 | 0.00 | 0.01 | 0.01 | 78 | 1022.8 |
| 20260903101603 | 74 | 155 | 1.0 | 3.0 | 0.00 | 0.01 | 0.01 | 76 | 1022.9 |
| 20260903101503 | 74 | 276 | 1.0 | 3.0 | 0.00 | 0.01 | 0.01 | 77 | 1022.9 |
| 20260903101403 | 73 | 272 | 1.0 | 3.0 | 0.00 | 0.01 | 0.01 | 78 | 1022.7 |
| 20260903101324 | 73 | 272 | 1.0 | 3.0 | 0.00 | 0.01 | 0.01 | 78 | 1022.7 |
| 20260903101203 | 73 | 58 | 1.0 | 3.0 | 0.00 | 0.01 | 0.01 | 79 | 1022.7 |
| 20260903101103 | 73 | 103 | 2.0 | 3.0 | 0.00 | 0.01 | 0.01 | 79 | 1022.8 |
| 20260903101024 | 73 | 78 | 2.0 | 3.0 | 0.00 | 0.01 | 0.01 | 80 | 1022.7 |
| 20260903100924 | 72 | 63 | 2.0 | 3.0 | 0.00 | 0.01 | 0.01 | 80 | 1022.9 |
| 20260903100803 | 72 | 66 | 2.0 | 3.0 | 0.00 | 0.01 | 0.01 | 79 | 1022.7 |
| 20260903100703 | 72 | 59 | 2.0 | 3.0 | 0.00 | 0.01 | 0.01 | 80 | 1022.8 |
| 20260903100624 | 72 | 68 | 2.0 | 3.0 | 0.00 | 0.01 | 0.01 | 81 | 1022.9 |
| 20260903100503 | 72 | 70 | 2.0 | 3.0 | 0.00 | 0.01 | 0.01 | 81 | 1022.9 |
| 20260903100403 | 72 | 63 | 2.0 | 3.0 | 0.00 | 0.01 | 0.01 | 81 | 1022.8 |
| 20260903100303 | 72 | 52 | 2.0 | 3.0 | 0.00 | 0.01 | 0.01 | 81 | 1022.9 |
| 20260903100203 | 72 | 46 | 1.0 | 3.0 | 0.00 | 0.01 | 0.01 | 82 | 1023.0 |
| 20260903100103 | 72 | 46 | 1.0 | 3.0 | 0.00 | 0.01 | 0.01 | 82 | 1023.0 |
| 20260903100024 | 72 | 34 | 1.0 | 3.0 | 0.00 | 0.01 | 0.01 | 81 | 1022.9 |
| 20260903095903 | 72 | 41 | 1.0 | 3.0 | 0.00 | 0.01 | 0.01 | 81 | 1022.9 |
| 20260903095803 | 72 | 25 | 1.0 | 3.0 | 0.00 | 0.01 | 0.01 | 84 | 1023.0 |
| 20260903095703 | 71 | 25 | 1.0 | 3.0 | 0.00 | 0.01 | 0.01 | 84 | 1022.9 |
| 20260903095624 | 71 | 19 | 1.0 | 3.0 | 0.00 | 0.01 | 0.01 | 87 | 1022.8 |
| 20260903095503 | 70 | 347 | 1.0 | 3.0 | 0.00 | 0.01 | 0.01 | 88 | 1022.9 |
| 20260903095403 | 70 | 300 | 1.0 | 3.0 | 0.00 | 0.01 | 0.01 | 87 | 1022.9 |
| 20260903095305 | 69 | 202 | 1.0 | 3.0 | 0.00 | 0.01 | 0.01 | 88 | 1023.0 |
| 20260903095203 | 69 | 194 | 1.0 | 3.0 | 0.00 | 0.01 | 0.01 | 90 | 1022.9 |
| 20260903095103 | 69 | 194 | 1.0 | 3.0 | 0.00 | 0.01 | 0.01 | 90 | 1022.9 |
| 20260903095003 | 69 | 136 | 1.0 | 3.0 | 0.00 | 0.01 | 0.01 | 92 | 1022.7 |
| 20260903094903 | 68 | 127 | 1.0 | 3.0 | 0.00 | 0.01 | 0.01 | 95 | 1022.9 |
| 20260903094803 | 67 | 83 | 1.0 | 3.0 | 0.00 | 0.01 | 0.01 | 95 | 1022.7 |
| 20260903094703 | 67 | 92 | 1.0 | 3.0 | 0.00 | 0.01 | 0.01 | 96 | 1022.9 |
| 20260903094603 | 67 | 83 | 2.0 | 3.0 | 0.00 | 0.01 | 0.01 | 97 | 1022.9 |
| 20260903094503 | 67 | 83 | 2.0 | 3.0 | 0.00 | 0.01 | 0.01 | 97 | 1022.9 |
| 20260903094403 | 67 | 91 | 2.0 | 3.0 | 0.00 | 0.01 | 0.01 | 97 | 1022.8 |
| 20260903094303 | 67 | 78 | 1.0 | 3.0 | 0.00 | 0.01 | 0.01 | 99 | 1022.7 |
| 20260903094203 | 66 | 61 | 1.0 | 2.0 | 0.00 | 0.01 | 0.01 | 99 | 1022.8 |
| 20260903094103 | 66 | 57 | 1.0 | 2.0 | 0.00 | 0.01 | 0.01 | 99 | 1022.9 |
| 20260903094003 | 66 | 61 | 2.0 | 3.0 | 0.00 | 0.01 | 0.01 | 99 | 1022.9 |
| 20260903093903 | 66 | 79 | 2.0 | 3.0 | 0.00 | 0.01 | 0.01 | 99 | 1022.9 |
| 20260903093803 | 66 | 77 | 2.0 | 3.0 | 0.00 | 0.01 | 0.01 | 99 | 1022.8 |
| 20260903093703 | 66 | 85 | 2.0 | 3.0 | 0.00 | 0.01 | 0.01 | 99 | 1022.9 |
| 20260903093603 | 66 | 353 | 1.0 | 3.0 | 0.00 | 0.01 | 0.01 | 99 | 1022.7 |
| 20260903093503 | 65 | 125 | 2.0 | 3.0 | 0.00 | 0.01 | 0.01 | 99 | 1022.8 |
| 20260903093424 | 65 | 125 | 2.0 | 3.0 | 0.00 | 0.01 | 0.01 | 99 | 1022.8 |
| 20260903093303 | 64 | 241 | 1.0 | 3.0 | 0.00 | 0.01 | 0.01 | 99 | 1022.9 |
| 20260903093203 | 65 | 217 | 2.0 | 3.0 | 0.00 | 0.01 | 0.01 | 99 | 1022.9 |
| 20260903093103 | 65 | 227 | 2.0 | 3.0 | 0.00 | 0.01 | 0.01 | 99 | 1022.9 |
| 20260903093003 | 65 | 241 | 1.0 | 3.0 | 0.00 | 0.01 | 0.01 | 99 | 1023.1 |
| 20260903092903 | 65 | 241 | 1.0 | 3.0 | 0.00 | 0.01 | 0.01 | 99 | 1023.1 |
| 20260903092803 | 65 | 353 | 1.0 | 3.0 | 0.00 | 0.01 | 0.01 | 99 | 1022.9 |
| 20260903092703 | 65 | 25 | 1.0 | 3.0 | 0.00 | 0.01 | 0.01 | 99 | 1023.0 |
| 20260903092603 | 65 | 114 | 2.0 | 3.0 | 0.00 | 0.01 | 0.01 | 99 | 1023.0 |
| 20260903092503 | 65 | 232 | 2.0 | 3.0 | 0.00 | 0.01 | 0.01 | 99 | 1023.0 |
| 20260903092403 | 65 | 274 | 2.0 | 3.0 | 0.00 | 0.01 | 0.01 | 99 | 1022.9 |
| 20260903092306 | 65 | 255 | 2.0 | 3.0 | 0.00 | 0.01 | 0.01 | 99 | 1022.8 |
| 20260903092203 | 65 | 264 | 2.0 | 3.0 | 0.00 | 0.01 | 0.01 | 99 | 1023.0 |
| 20260903092103 | 64 | 286 | 2.0 | 3.0 | 0.00 | 0.01 | 0.01 | 99 | 1022.9 |
| 20260903092003 | 64 | 320 | 2.0 | 3.0 | 0.00 | 0.01 | 0.01 | 99 | 1022.9 |
| 20260903091903 | 64 | 47 | 2.0 | 3.0 | 0.00 | 0.01 | 0.01 | 99 | 1022.8 |
| 20260903091824 | 64 | 217 | 2.0 | 3.0 | 0.00 | 0.01 | 0.01 | 99 | 1023.1 |
| 20260903091703 | 64 | 222 | 2.0 | 3.0 | 0.00 | 0.01 | 0.01 | 99 | 1022.9 |
| 20260903091603 | 64 | 182 | 2.0 | 3.0 | 0.00 | 0.01 | 0.01 | 99 | 1022.9 |
| 20260903091503 | 64 | 189 | 2.0 | 4.0 | 0.00 | 0.01 | 0.01 | 99 | 1023.0 |
| 20260903091403 | 64 | 145 | 2.0 | 4.0 | 0.00 | 0.01 | 0.01 | 99 | 1022.9 |
| 20260903091303 | 64 | 136 | 2.0 | 4.0 | 0.00 | 0.01 | 0.01 | 99 | 1023.1 |
| 20260903091203 | 64 | 92 | 2.0 | 4.0 | 0.00 | 0.01 | 0.01 | 99 | 1023.0 |
| 20260903091103 | 64 | 87 | 2.0 | 4.0 | 0.00 | 0.01 | 0.01 | 99 | 1022.9 |
| 20260903091003 | 64 | 86 | 2.0 | 4.0 | 0.00 | 0.01 | 0.01 | 99 | 1022.9 |
| 20260903090903 | 64 | 73 | 2.0 | 4.0 | 0.00 | 0.01 | 0.01 | 99 | 1022.8 |
| 20260903090803 | 64 | 82 | 2.0 | 4.0 | 0.00 | 0.01 | 0.01 | 99 | 1022.9 |
| 20260903090703 | 64 | 52 | 1.0 | 4.0 | 0.00 | 0.01 | 0.01 | 99 | 1023.0 |
| 20260903090603 | 64 | 38 | 1.0 | 4.0 | 0.00 | 0.01 | 0.01 | 99 | 1023.1 |
| 20260903090503 | 64 | 36 | 1.0 | 3.0 | 0.00 | 0.01 | 0.01 | 99 | 1023.0 |
| 20260903090403 | 63 | 26 | 1.0 | 3.0 | 0.00 | 0.01 | 0.01 | 99 | 1023.0 |
| 20260903090324 | 63 | 22 | 1.0 | 3.0 | 0.00 | 0.01 | 0.01 | 99 | 1023.1 |
| 20260903090203 | 64 | 21 | 1.0 | 3.0 | 0.00 | 0.01 | 0.01 | 99 | 1023.0 |
| 20260903090003 | 64 | 357 | 1.0 | 2.0 | 0.00 | 0.01 | 0.01 | 99 | 1022.9 |
| 20260903085924 | 63 | 353 | 1.0 | 2.0 | 0.00 | 0.01 | 0.01 | 99 | 1023.0 |
| 20260903085803 | 63 | 355 | 1.0 | 2.0 | 0.00 | 0.01 | 0.01 | 99 | 1023.0 |
| 20260903085703 | 63 | 353 | 1.0 | 2.0 | 0.00 | 0.01 | 0.01 | 99 | 1023.0 |
| 20260903085603 | 63 | 359 | 1.0 | 2.0 | 0.00 | 0.01 | 0.01 | 99 | 1023.1 |
| 20260903085524 | 63 | 9 | 1.0 | 2.0 | 0.00 | 0.01 | 0.01 | 99 | 1023.0 |
| 20260903085403 | 63 | 16 | 0.0 | 2.0 | 0.00 | 0.01 | 0.01 | 99 | 1023.0 |
| 20260903085306 | 63 | 32 | 0.0 | 1.0 | 0.00 | 0.01 | 0.01 | 99 | 1022.9 |
| 20260903085203 | 63 | 32 | 0.0 | 1.0 | 0.00 | 0.01 | 0.01 | 99 | 1022.9 |
| 20260903085103 | 63 | 32 | 0.0 | 1.0 | 0.00 | 0.01 | 0.01 | 99 | 1022.9 |
| 20260903085003 | 63 | 33 | 0.0 | 1.0 | 0.00 | 0.01 | 0.01 | 99 | 1022.9 |
| 20260903084903 | 63 | 33 | 0.0 | 1.0 | 0.00 | 0.01 | 0.01 | 99 | 1022.9 |
| 20260903084803 | 63 | 28 | 0.0 | 1.0 | 0.00 | 0.01 | 0.01 | 99 | 1022.9 |
| 20260903084703 | 64 | 28 | 0.0 | 1.0 | 0.00 | 0.01 | 0.01 | 99 | 1022.9 |
| 20260903084603 | 64 | 37 | 0.0 | 1.0 | 0.00 | 0.01 | 0.01 | 99 | 1022.8 |
| 20260903084503 | 64 | 38 | 0.0 | 1.0 | 0.00 | 0.01 | 0.01 | 99 | 1023.0 |
| 20260903084403 | 64 | 39 | 0.0 | 1.0 | 0.00 | 0.01 | 0.01 | 99 | 1022.9 |
| 20260903084303 | 64 | 41 | 0.0 | 2.0 | 0.00 | 0.01 | 0.01 | 99 | 1022.9 |
| 20260903084224 | 64 | 41 | 0.0 | 2.0 | 0.00 | 0.01 | 0.01 | 99 | 1022.9 |
| 20260903084103 | 63 | 43 | 1.0 | 2.0 | 0.00 | 0.01 | 0.01 | 99 | 1023.0 |
| 20260903084003 | 63 | 47 | 1.0 | 2.0 | 0.00 | 0.01 | 0.01 | 99 | 1023.0 |
| 20260903083903 | 63 | 50 | 1.0 | 2.0 | 0.00 | 0.01 | 0.01 | 99 | 1022.8 |
| 20260903083803 | 62 | 58 | 1.0 | 3.0 | 0.00 | 0.01 | 0.01 | 99 | 1022.9 |
| 20260903083703 | 62 | 57 | 1.0 | 3.0 | 0.00 | 0.01 | 0.01 | 99 | 1022.9 |
| 20260903083624 | 62 | 57 | 1.0 | 3.0 | 0.00 | 0.01 | 0.01 | 99 | 1023.0 |
| 20260903083503 | 61 | 58 | 1.0 | 3.0 | 0.00 | 0.01 | 0.01 | 99 | 1022.9 |
| 20260903083424 | 61 | 56 | 1.0 | 3.0 | 0.00 | 0.01 | 0.01 | 99 | 1023.0 |
| 20260903083303 | 61 | 55 | 1.0 | 3.0 | 0.00 | 0.01 | 0.01 | 99 | 1023.0 |
| 20260903083203 | 61 | 54 | 1.0 | 3.0 | 0.00 | 0.01 | 0.01 | 99 | 1023.0 |
| 20260903083103 | 61 | 54 | 1.0 | 3.0 | 0.00 | 0.01 | 0.01 | 99 | 1023.1 |
| 20260903083003 | 60 | 51 | 1.0 | 3.0 | 0.00 | 0.01 | 0.01 | 99 | 1023.1 |
| 20260903082903 | 60 | 51 | 1.0 | 3.0 | 0.00 | 0.01 | 0.01 | 99 | 1023.1 |
| 20260903082803 | 61 | 48 | 1.0 | 3.0 | 0.00 | 0.01 | 0.01 | 99 | 1023.0 |
| 20260903082703 | 61 | 35 | 1.0 | 2.0 | 0.00 | 0.01 | 0.01 | 99 | 1022.9 |
| 20260903082603 | 61 | 30 | 1.0 | 2.0 | 0.00 | 0.01 | 0.01 | 99 | 1023.0 |
| 20260903082503 | 61 | 22 | 0.0 | 1.0 | 0.00 | 0.01 | 0.01 | 99 | 1023.0 |
| 20260903082403 | 61 | 18 | 0.0 | 1.0 | 0.00 | 0.01 | 0.01 | 99 | 1023.2 |
| 20260903082306 | 61 | 21 | 0.0 | 1.0 | 0.00 | 0.01 | 0.01 | 99 | 1023.1 |
| 20260903082203 | 61 | 19 | 0.0 | 1.0 | 0.00 | 0.01 | 0.01 | 99 | 1023.1 |
| 20260903082103 | 61 | 26 | 0.0 | 1.0 | 0.00 | 0.01 | 0.01 | 99 | 1023.1 |
| 20260903082003 | 60 | 26 | 0.0 | 1.0 | 0.00 | 0.01 | 0.01 | 99 | 1023.1 |
| 20260903081903 | 60 | 26 | 0.0 | 1.0 | 0.00 | 0.01 | 0.01 | 99 | 1023.0 |
| 20260903081803 | 60 | 26 | 0.0 | 1.0 | 0.00 | 0.01 | 0.01 | 99 | 1023.2 |
| 20260903081703 | 60 | 26 | 0.0 | 1.0 | 0.00 | 0.01 | 0.01 | 99 | 1023.1 |
| 20260903081603 | 60 | 27 | 0.0 | 1.0 | 0.00 | 0.01 | 0.01 | 99 | 1023.2 |
| 20260903081503 | 60 | 0 | 0.0 | 0.0 | 0.00 | 0.01 | 0.01 | 99 | 1023.2 |
| 20260903081403 | 60 | 39 | 0.0 | 1.0 | 0.00 | 0.01 | 0.01 | 99 | 1023.2 |
| 20260903081303 | 60 | 10 | 0.0 | 2.0 | 0.00 | 0.01 | 0.01 | 99 | 1023.2 |
| 20260903081224 | 60 | 360 | 0.0 | 2.0 | 0.00 | 0.01 | 0.01 | 99 | 1023.1 |
| 20260903081103 | 60 | 358 | 0.0 | 2.0 | 0.00 | 0.01 | 0.01 | 99 | 1023.2 |
| 20260903081003 | 60 | 357 | 0.0 | 2.0 | 0.00 | 0.01 | 0.01 | 99 | 1023.1 |
| 20260903080903 | 60 | 356 | 1.0 | 2.0 | 0.00 | 0.01 | 0.01 | 99 | 1023.1 |
| 20260903080824 | 60 | 349 | 1.0 | 2.0 | 0.00 | 0.01 | 0.01 | 99 | 1023.0 |
| 20260903080703 | 59 | 350 | 1.0 | 2.0 | 0.00 | 0.01 | 0.01 | 99 | 1023.2 |
| 20260903080603 | 59 | 354 | 1.0 | 2.0 | 0.00 | 0.01 | 0.01 | 99 | 1023.1 |
| 20260903080524 | 59 | 353 | 1.0 | 2.0 | 0.00 | 0.01 | 0.01 | 99 | 1023.3 |
| 20260903080403 | 60 | 351 | 1.0 | 2.0 | 0.00 | 0.01 | 0.01 | 99 | 1023.0 |
| 20260903080303 | 60 | 358 | 1.0 | 2.0 | 0.00 | 0.01 | 0.01 | 99 | 1022.9 |
| 20260903080203 | 59 | 9 | 1.0 | 2.0 | 0.00 | 0.01 | 0.01 | 99 | 1023.1 |
| 20260903080103 | 59 | 9 | 1.0 | 2.0 | 0.00 | 0.01 | 0.01 | 99 | 1023.1 |
| 20260903080024 | 59 | 16 | 1.0 | 2.0 | 0.00 | 0.01 | 0.01 | 99 | 1022.9 |
| 20260903075925 | 59 | 21 | 1.0 | 2.0 | 0.00 | 0.01 | 0.01 | 99 | 1022.8 |
| 20260903075803 | 59 | 22 | 1.0 | 2.0 | 0.00 | 0.01 | 0.01 | 99 | 1023.1 |
| 20260903075724 | 59 | 31 | 1.0 | 2.0 | 0.00 | 0.01 | 0.01 | 99 | 1023.0 |
| 20260903075603 | 59 | 34 | 1.0 | 2.0 | 0.00 | 0.01 | 0.01 | 99 | 1023.0 |
| 20260903075503 | 59 | 34 | 1.0 | 2.0 | 0.00 | 0.01 | 0.01 | 99 | 1023.0 |
| 20260903075403 | 59 | 38 | 1.0 | 2.0 | 0.00 | 0.01 | 0.01 | 99 | 1023.1 |
| 20260903075306 | 59 | 41 | 1.0 | 2.0 | 0.00 | 0.01 | 0.01 | 99 | 1022.9 |
| 20260903075203 | 59 | 41 | 1.0 | 2.0 | 0.00 | 0.01 | 0.01 | 99 | 1023.2 |
| 20260903075103 | 59 | 36 | 1.0 | 2.0 | 0.00 | 0.01 | 0.01 | 99 | 1023.1 |
| 20260903075003 | 59 | 33 | 0.0 | 1.0 | 0.00 | 0.01 | 0.01 | 99 | 1023.0 |
| 20260903074903 | 59 | 32 | 0.0 | 1.0 | 0.00 | 0.01 | 0.01 | 99 | 1023.0 |
| 20260903074803 | 59 | 35 | 0.0 | 1.0 | 0.00 | 0.01 | 0.01 | 99 | 1023.0 |
| 20260903074724 | 59 | 35 | 0.0 | 1.0 | 0.00 | 0.01 | 0.01 | 99 | 1023.0 |
| 20260903074624 | 58 | 35 | 0.0 | 1.0 | 0.00 | 0.01 | 0.01 | 99 | 1023.0 |
| 20260903074503 | 58 | 35 | 1.0 | 1.0 | 0.00 | 0.01 | 0.01 | 99 | 1022.9 |
| 20260903074403 | 59 | 37 | 1.0 | 1.0 | 0.00 | 0.01 | 0.01 | 99 | 1022.9 |
| 20260903074303 | 59 | 42 | 1.0 | 2.0 | 0.00 | 0.01 | 0.01 | 99 | 1023.0 |
| 20260903074203 | 59 | 47 | 1.0 | 2.0 | 0.00 | 0.01 | 0.01 | 99 | 1022.9 |
| 20260903074103 | 59 | 48 | 1.0 | 2.0 | 0.00 | 0.01 | 0.01 | 99 | 1023.0 |
| 20260903074024 | 59 | 51 | 1.0 | 2.0 | 0.00 | 0.01 | 0.01 | 99 | 1022.9 |
| 20260903073903 | 59 | 53 | 1.0 | 2.0 | 0.00 | 0.01 | 0.01 | 99 | 1023.0 |
| 20260903073803 | 58 | 59 | 1.0 | 3.0 | 0.00 | 0.01 | 0.01 | 99 | 1023.1 |
| 20260903073703 | 58 | 66 | 2.0 | 3.0 | 0.00 | 0.01 | 0.01 | 99 | 1023.0 |
| 20260903073603 | 58 | 67 | 2.0 | 3.0 | 0.00 | 0.01 | 0.01 | 99 | 1022.9 |
| 20260903073503 | 58 | 69 | 2.0 | 3.0 | 0.00 | 0.01 | 0.01 | 99 | 1022.9 |
| 20260903073403 | 58 | 68 | 2.0 | 3.0 | 0.00 | 0.01 | 0.01 | 99 | 1023.1 |
| 20260903073303 | 58 | 67 | 2.0 | 3.0 | 0.00 | 0.01 | 0.01 | 99 | 1023.0 |
| 20260903073203 | 58 | 67 | 2.0 | 3.0 | 0.00 | 0.01 | 0.01 | 99 | 1022.9 |
| 20260903073103 | 58 | 67 | 2.0 | 3.0 | 0.00 | 0.01 | 0.01 | 99 | 1022.9 |
| 20260903073024 | 58 | 67 | 2.0 | 3.0 | 0.00 | 0.01 | 0.01 | 99 | 1022.9 |
| 20260903072924 | 58 | 67 | 2.0 | 3.0 | 0.00 | 0.01 | 0.01 | 99 | 1022.9 |
| 20260903072803 | 58 | 66 | 2.0 | 3.0 | 0.00 | 0.01 | 0.01 | 99 | 1022.7 |
| 20260903072703 | 58 | 66 | 2.0 | 3.0 | 0.00 | 0.01 | 0.01 | 99 | 1022.7 |
| 20260903072603 | 58 | 58 | 1.0 | 2.0 | 0.00 | 0.01 | 0.01 | 99 | 1022.8 |
| 20260903072503 | 58 | 51 | 1.0 | 2.0 | 0.00 | 0.01 | 0.01 | 99 | 1022.9 |
| 20260903072403 | 58 | 47 | 1.0 | 2.0 | 0.00 | 0.01 | 0.01 | 99 | 1022.8 |
| 20260903072306 | 58 | 42 | 1.0 | 2.0 | 0.00 | 0.01 | 0.01 | 99 | 1022.7 |
| 20260903072203 | 58 | 39 | 1.0 | 1.0 | 0.00 | 0.01 | 0.01 | 99 | 1022.8 |
| 20260903072103 | 58 | 38 | 1.0 | 1.0 | 0.00 | 0.01 | 0.01 | 99 | 1022.9 |
| 20260903071603 | 59 | 46 | 1.0 | 2.0 | 0.00 | 0.01 | 0.01 | 99 | 1022.8 |
| 20260903071503 | 59 | 46 | 1.0 | 2.0 | 0.00 | 0.01 | 0.01 | 99 | 1022.7 |
| 20260903071424 | 59 | 46 | 1.0 | 2.0 | 0.00 | 0.01 | 0.01 | 99 | 1022.7 |
| 20260903071303 | 58 | 49 | 1.0 | 2.0 | 0.00 | 0.01 | 0.01 | 99 | 1022.7 |
| 20260903071224 | 58 | 49 | 1.0 | 2.0 | 0.00 | 0.01 | 0.01 | 99 | 1022.7 |
| 20260903071124 | 58 | 54 | 1.0 | 2.0 | 0.00 | 0.01 | 0.01 | 99 | 1022.5 |
| 20260903071003 | 58 | 58 | 1.0 | 2.0 | 0.00 | 0.01 | 0.01 | 99 | 1022.6 |
| 20260903070903 | 58 | 58 | 1.0 | 2.0 | 0.00 | 0.01 | 0.01 | 99 | 1022.6 |
| 20260903070803 | 58 | 57 | 1.0 | 2.0 | 0.00 | 0.01 | 0.01 | 99 | 1022.6 |
| 20260903070703 | 58 | 59 | 2.0 | 2.0 | 0.00 | 0.01 | 0.01 | 99 | 1022.6 |
| 20260903070603 | 58 | 59 | 2.0 | 2.0 | 0.00 | 0.01 | 0.01 | 99 | 1022.6 |
| 20260903070503 | 58 | 59 | 1.0 | 2.0 | 0.00 | 0.01 | 0.01 | 99 | 1022.7 |
| 20260903070403 | 58 | 59 | 1.0 | 2.0 | 0.00 | 0.01 | 0.01 | 99 | 1022.7 |
| 20260903070303 | 58 | 58 | 2.0 | 2.0 | 0.00 | 0.01 | 0.01 | 99 | 1022.7 |
| 20260903070203 | 58 | 57 | 1.0 | 2.0 | 0.00 | 0.01 | 0.01 | 99 | 1022.7 |
| 20260903070103 | 58 | 56 | 1.0 | 2.0 | 0.00 | 0.01 | 0.01 | 99 | 1022.8 |
| 20260903070003 | 58 | 63 | 1.0 | 3.0 | 0.00 | 0.01 | 0.01 | 99 | 1022.6 |
| 20260903065924 | 58 | 60 | 1.0 | 3.0 | 0.00 | 0.01 | 0.01 | 99 | 1022.6 |
| 20260903065803 | 58 | 63 | 1.0 | 3.0 | 0.00 | 0.01 | 0.01 | 99 | 1022.6 |
| 20260903065703 | 58 | 60 | 1.0 | 3.0 | 0.00 | 0.01 | 0.01 | 99 | 1022.6 |
| 20260903065603 | 58 | 61 | 1.0 | 3.0 | 0.00 | 0.01 | 0.01 | 99 | 1022.6 |
| 20260903065503 | 58 | 61 | 1.0 | 3.0 | 0.00 | 0.01 | 0.01 | 99 | 1022.6 |
| 20260903065424 | 58 | 61 | 1.0 | 3.0 | 0.00 | 0.01 | 0.01 | 99 | 1022.5 |
| 20260903065306 | 58 | 61 | 1.0 | 3.0 | 0.00 | 0.01 | 0.01 | 99 | 1022.6 |
| 20260903065224 | 58 | 60 | 1.0 | 3.0 | 0.00 | 0.01 | 0.01 | 99 | 1022.7 |
| 20260903065103 | 58 | 59 | 1.0 | 3.0 | 0.00 | 0.01 | 0.01 | 99 | 1022.6 |
| 20260903065024 | 59 | 68 | 2.0 | 3.0 | 0.00 | 0.01 | 0.01 | 99 | 1022.6 |
| 20260903064903 | 59 | 67 | 2.0 | 3.0 | 0.00 | 0.01 | 0.01 | 99 | 1022.5 |
| 20260903064803 | 59 | 65 | 1.0 | 3.0 | 0.00 | 0.01 | 0.01 | 99 | 1022.4 |
| 20260903064703 | 59 | 63 | 2.0 | 3.0 | 0.00 | 0.01 | 0.01 | 99 | 1022.7 |
| 20260903064603 | 59 | 64 | 1.0 | 3.0 | 0.00 | 0.01 | 0.01 | 99 | 1022.5 |
| 20260903064503 | 59 | 62 | 1.0 | 3.0 | 0.00 | 0.01 | 0.01 | 99 | 1022.6 |
| 20260903064403 | 59 | 62 | 1.0 | 3.0 | 0.00 | 0.01 | 0.01 | 99 | 1022.5 |
| 20260903064303 | 59 | 70 | 1.0 | 3.0 | 0.00 | 0.01 | 0.01 | 99 | 1022.5 |
| 20260903064203 | 59 | 72 | 1.0 | 3.0 | 0.00 | 0.01 | 0.01 | 99 | 1022.4 |
| 20260903064103 | 59 | 72 | 1.0 | 3.0 | 0.00 | 0.01 | 0.01 | 99 | 1022.5 |
| 20260903064024 | 59 | 72 | 1.0 | 3.0 | 0.00 | 0.01 | 0.01 | 99 | 1022.5 |
| 20260903063903 | 59 | 59 | 1.0 | 3.0 | 0.00 | 0.01 | 0.01 | 99 | 1022.4 |
| 20260903063824 | 59 | 62 | 1.0 | 3.0 | 0.00 | 0.01 | 0.01 | 99 | 1022.5 |
| 20260903063703 | 59 | 67 | 2.0 | 3.0 | 0.00 | 0.01 | 0.01 | 99 | 1022.4 |
| 20260903063603 | 59 | 77 | 2.0 | 3.0 | 0.00 | 0.01 | 0.01 | 99 | 1022.6 |
| 20260903063503 | 59 | 78 | 2.0 | 3.0 | 0.00 | 0.01 | 0.01 | 99 | 1022.5 |
| 20260903063424 | 59 | 81 | 2.0 | 3.0 | 0.00 | 0.01 | 0.01 | 99 | 1022.6 |
| 20260903063303 | 59 | 82 | 2.0 | 3.0 | 0.00 | 0.01 | 0.01 | 99 | 1022.4 |
| 20260903063203 | 59 | 81 | 2.0 | 3.0 | 0.00 | 0.01 | 0.01 | 99 | 1022.4 |
| 20260903063103 | 59 | 82 | 2.0 | 3.0 | 0.00 | 0.01 | 0.01 | 99 | 1022.6 |
| 20260903063003 | 59 | 83 | 2.0 | 3.0 | 0.00 | 0.01 | 0.01 | 99 | 1022.5 |
| 20260903062903 | 59 | 86 | 2.0 | 3.0 | 0.00 | 0.01 | 0.01 | 99 | 1022.6 |
| 20260903062803 | 59 | 90 | 2.0 | 3.0 | 0.00 | 0.01 | 0.01 | 99 | 1022.3 |
| 20260903062724 | 59 | 90 | 2.0 | 3.0 | 0.00 | 0.01 | 0.01 | 99 | 1022.3 |
| 20260903062624 | 59 | 89 | 2.0 | 3.0 | 0.00 | 0.01 | 0.01 | 99 | 1022.4 |
| 20260903062503 | 58 | 84 | 2.0 | 3.0 | 0.00 | 0.01 | 0.01 | 99 | 1022.4 |
| 20260903062403 | 58 | 84 | 2.0 | 3.0 | 0.00 | 0.01 | 0.01 | 99 | 1022.4 |
| 20260903062306 | 58 | 83 | 2.0 | 3.0 | 0.00 | 0.01 | 0.01 | 99 | 1022.4 |
| 20260903062203 | 58 | 83 | 2.0 | 3.0 | 0.00 | 0.01 | 0.01 | 99 | 1022.4 |
| 20260903062103 | 58 | 79 | 2.0 | 3.0 | 0.00 | 0.01 | 0.01 | 99 | 1022.3 |
| 20260903062003 | 58 | 77 | 2.0 | 3.0 | 0.00 | 0.01 | 0.01 | 99 | 1022.4 |
| 20260903061903 | 58 | 79 | 2.0 | 3.0 | 0.00 | 0.01 | 0.01 | 99 | 1022.6 |
| 20260903061803 | 58 | 76 | 2.0 | 3.0 | 0.00 | 0.01 | 0.01 | 99 | 1022.5 |
| 20260903061724 | 58 | 71 | 2.0 | 3.0 | 0.00 | 0.01 | 0.01 | 99 | 1022.5 |
| 20260903061603 | 58 | 71 | 2.0 | 3.0 | 0.00 | 0.01 | 0.01 | 99 | 1022.7 |
| 20260903061503 | 58 | 76 | 2.0 | 4.0 | 0.00 | 0.01 | 0.01 | 99 | 1022.4 |
| 20260903061403 | 58 | 74 | 2.0 | 4.0 | 0.00 | 0.01 | 0.01 | 99 | 1022.4 |
| 20260903061303 | 58 | 73 | 2.0 | 4.0 | 0.00 | 0.01 | 0.01 | 99 | 1022.4 |
| 20260903061203 | 58 | 74 | 2.0 | 4.0 | 0.00 | 0.01 | 0.01 | 99 | 1022.4 |
| 20260903061124 | 58 | 74 | 2.0 | 4.0 | 0.00 | 0.01 | 0.01 | 99 | 1022.4 |
| 20260903061003 | 58 | 74 | 2.0 | 4.0 | 0.00 | 0.01 | 0.01 | 99 | 1022.5 |
| 20260903060903 | 58 | 72 | 2.0 | 4.0 | 0.00 | 0.01 | 0.01 | 99 | 1022.4 |
| 20260903060803 | 58 | 72 | 2.0 | 4.0 | 0.00 | 0.01 | 0.01 | 99 | 1022.5 |
| 20260903060703 | 58 | 72 | 2.0 | 4.0 | 0.00 | 0.01 | 0.01 | 99 | 1022.5 |
| 20260903060603 | 58 | 65 | 2.0 | 4.0 | 0.01 | 0.01 | 0.01 | 99 | 1022.5 |
| 20260903060503 | 58 | 65 | 2.0 | 4.0 | 0.01 | 0.01 | 0.01 | 99 | 1022.5 |
| 20260903060424 | 58 | 54 | 2.0 | 2.0 | 0.01 | 0.01 | 0.01 | 99 | 1022.4 |
| 20260903060303 | 58 | 51 | 1.0 | 2.0 | 0.01 | 0.01 | 0.01 | 99 | 1022.6 |
| 20260903060203 | 58 | 49 | 1.0 | 2.0 | 0.01 | 0.01 | 0.01 | 99 | 1022.5 |
| 20260903060003 | 58 | 45 | 1.0 | 2.0 | 0.01 | 0.01 | 0.01 | 99 | 1022.4 |
| 20260903055903 | 58 | 45 | 1.0 | 2.0 | 0.01 | 0.01 | 0.01 | 99 | 1022.5 |
| 20260903055803 | 58 | 45 | 1.0 | 2.0 | 0.01 | 0.01 | 0.01 | 99 | 1022.5 |
| 20260903055724 | 58 | 41 | 1.0 | 2.0 | 0.01 | 0.01 | 0.01 | 99 | 1022.5 |
| 20260903055624 | 59 | 38 | 0.0 | 2.0 | 0.01 | 0.01 | 0.01 | 99 | 1022.5 |
| 20260903055524 | 59 | 38 | 0.0 | 2.0 | 0.01 | 0.01 | 0.01 | 99 | 1022.5 |
| 20260903055424 | 59 | 39 | 0.0 | 2.0 | 0.01 | 0.01 | 0.01 | 99 | 1022.5 |
| 20260903055306 | 59 | 35 | 0.0 | 1.0 | 0.01 | 0.01 | 0.01 | 99 | 1022.5 |
| 20260903055203 | 59 | 31 | 0.0 | 1.0 | 0.01 | 0.01 | 0.01 | 99 | 1022.4 |
| 20260903055103 | 59 | 0 | 0.0 | 0.0 | 0.01 | 0.01 | 0.01 | 99 | 1022.5 |
| 20260903055003 | 59 | 0 | 0.0 | 0.0 | 0.01 | 0.01 | 0.01 | 99 | 1022.6 |
| 20260903054903 | 59 | 0 | 0.0 | 0.0 | 0.01 | 0.01 | 0.01 | 99 | 1022.6 |
| 20260903054803 | 59 | 0 | 0.0 | 0.0 | 0.01 | 0.01 | 0.01 | 99 | 1022.4 |
| 20260903054703 | 59 | 0 | 0.0 | 0.0 | 0.01 | 0.01 | 0.01 | 99 | 1022.5 |
| 20260903054603 | 59 | 0 | 0.0 | 0.0 | 0.01 | 0.01 | 0.01 | 99 | 1022.4 |
| 20260903054503 | 59 | 23 | 0.0 | 1.0 | 0.01 | 0.01 | 0.01 | 99 | 1022.4 |
| 20260903054403 | 59 | 22 | 0.0 | 1.0 | 0.01 | 0.01 | 0.01 | 99 | 1022.5 |
| 20260903054303 | 59 | 22 | 0.0 | 1.0 | 0.01 | 0.01 | 0.01 | 99 | 1022.5 |
| 20260903054203 | 59 | 12 | 0.0 | 2.0 | 0.01 | 0.01 | 0.01 | 99 | 1022.4 |
| 20260903054103 | 59 | 12 | 0.0 | 2.0 | 0.01 | 0.01 | 0.01 | 99 | 1022.4 |
| 20260903054003 | 59 | 12 | 0.0 | 2.0 | 0.01 | 0.01 | 0.01 | 99 | 1022.4 |
| 20260903053903 | 59 | 10 | 0.0 | 2.0 | 0.01 | 0.01 | 0.01 | 99 | 1022.4 |
| 20260903053824 | 59 | 10 | 0.0 | 2.0 | 0.01 | 0.01 | 0.01 | 99 | 1022.4 |
| 20260903053703 | 59 | 9 | 1.0 | 2.0 | 0.01 | 0.01 | 0.01 | 99 | 1022.5 |
| 20260903053603 | 60 | 10 | 1.0 | 2.0 | 0.01 | 0.01 | 0.01 | 99 | 1022.5 |
| 20260903053503 | 60 | 10 | 1.0 | 2.0 | 0.01 | 0.01 | 0.01 | 99 | 1022.4 |
| 20260903053403 | 60 | 8 | 1.0 | 2.0 | 0.01 | 0.01 | 0.01 | 99 | 1022.3 |
| 20260903053303 | 60 | 8 | 1.0 | 2.0 | 0.01 | 0.01 | 0.01 | 99 | 1022.3 |
| 20260903053224 | 59 | 8 | 1.0 | 2.0 | 0.01 | 0.01 | 0.01 | 99 | 1022.4 |
| 20260903053124 | 59 | 12 | 0.0 | 2.0 | 0.01 | 0.01 | 0.01 | 99 | 1022.3 |
| 20260903053024 | 60 | 14 | 0.0 | 2.0 | 0.01 | 0.01 | 0.01 | 99 | 1022.4 |
| 20260903052903 | 60 | 14 | 0.0 | 2.0 | 0.01 | 0.01 | 0.01 | 99 | 1022.4 |
| 20260903052803 | 60 | 15 | 0.0 | 2.0 | 0.01 | 0.01 | 0.01 | 99 | 1022.4 |
| 20260903052703 | 60 | 19 | 0.0 | 1.0 | 0.01 | 0.01 | 0.01 | 99 | 1022.3 |
| 20260903052603 | 60 | 21 | 0.0 | 1.0 | 0.01 | 0.01 | 0.01 | 99 | 1022.4 |
| 20260903052524 | 59 | 22 | 0.0 | 1.0 | 0.01 | 0.01 | 0.01 | 99 | 1022.4 |
| 20260903052403 | 59 | 23 | 0.0 | 1.0 | 0.01 | 0.01 | 0.01 | 99 | 1022.4 |
| 20260903052306 | 60 | 23 | 0.0 | 1.0 | 0.01 | 0.01 | 0.01 | 99 | 1022.4 |
| 20260903052203 | 60 | 23 | 0.0 | 1.0 | 0.01 | 0.01 | 0.01 | 99 | 1022.4 |
| 20260903052103 | 60 | 22 | 0.0 | 1.0 | 0.01 | 0.01 | 0.01 | 99 | 1022.5 |
| 20260903052003 | 60 | 20 | 0.0 | 1.0 | 0.01 | 0.01 | 0.01 | 99 | 1022.5 |
| 20260903051903 | 60 | 20 | 0.0 | 1.0 | 0.01 | 0.01 | 0.01 | 99 | 1022.5 |
| 20260903051803 | 60 | 20 | 0.0 | 1.0 | 0.01 | 0.01 | 0.01 | 99 | 1022.4 |
| 20260903051703 | 60 | 20 | 0.0 | 1.0 | 0.01 | 0.01 | 0.01 | 99 | 1022.4 |
| 20260903051603 | 60 | 20 | 0.0 | 1.0 | 0.01 | 0.01 | 0.01 | 99 | 1022.4 |
| 20260903051503 | 60 | 20 | 0.0 | 1.0 | 0.01 | 0.01 | 0.01 | 99 | 1022.4 |
| 20260903051403 | 60 | 0 | 0.0 | 0.0 | 0.01 | 0.01 | 0.01 | 99 | 1022.4 |
| 20260903051303 | 60 | 0 | 0.0 | 0.0 | 0.01 | 0.01 | 0.01 | 99 | 1022.4 |
| 20260903051203 | 60 | 0 | 0.0 | 0.0 | 0.01 | 0.01 | 0.01 | 99 | 1022.3 |
| 20260903051103 | 60 | 0 | 0.0 | 0.0 | 0.01 | 0.01 | 0.01 | 99 | 1022.5 |
| 20260903051003 | 60 | 0 | 0.0 | 0.0 | 0.01 | 0.01 | 0.01 | 99 | 1022.4 |
| 20260903050903 | 60 | 0 | 0.0 | 0.0 | 0.01 | 0.01 | 0.01 | 99 | 1022.4 |
| 20260903050803 | 60 | 0 | 0.0 | 0.0 | 0.01 | 0.01 | 0.01 | 99 | 1022.4 |
| 20260903050703 | 60 | 41 | 0.0 | 1.0 | 0.01 | 0.01 | 0.01 | 99 | 1022.3 |
| 20260903050603 | 60 | 40 | 0.0 | 1.0 | 0.00 | 0.00 | 0.00 | 99 | 1022.3 |
| 20260903050503 | 60 | 38 | 0.0 | 1.0 | 0.00 | 0.00 | 0.00 | 99 | 1022.4 |
| 20260903050403 | 60 | 41 | 0.0 | 2.0 | 0.00 | 0.00 | 0.00 | 99 | 1022.5 |
| 20260903050303 | 60 | 39 | 0.0 | 2.0 | 0.00 | 0.00 | 0.00 | 99 | 1022.4 |
| 20260903050203 | 60 | 39 | 0.0 | 2.0 | 0.00 | 0.00 | 0.00 | 99 | 1022.4 |
| 20260903050024 | 60 | 39 | 0.0 | 2.0 | 0.00 | 0.00 | 0.00 | 99 | 1022.5 |
| 20260903045903 | 60 | 39 | 0.0 | 2.0 | 0.00 | 0.00 | 0.00 | 99 | 1022.3 |
| 20260903045803 | 60 | 39 | 1.0 | 2.0 | 0.00 | 0.00 | 0.00 | 99 | 1022.4 |
| 20260903045704 | 60 | 39 | 1.0 | 2.0 | 0.00 | 0.00 | 0.00 | 99 | 1022.4 |
| 20260903045603 | 60 | 39 | 1.0 | 2.0 | 0.00 | 0.00 | 0.00 | 99 | 1022.5 |
| 20260903045503 | 60 | 46 | 1.0 | 2.0 | 0.00 | 0.00 | 0.00 | 99 | 1022.4 |
| 20260903045403 | 60 | 49 | 1.0 | 2.0 | 0.00 | 0.00 | 0.00 | 99 | 1022.3 |
| 20260903045306 | 60 | 49 | 1.0 | 2.0 | 0.00 | 0.00 | 0.00 | 99 | 1022.6 |
| 20260903045203 | 60 | 51 | 1.0 | 2.0 | 0.00 | 0.00 | 0.00 | 99 | 1022.4 |
| 20260903045124 | 60 | 51 | 1.0 | 2.0 | 0.00 | 0.00 | 0.00 | 99 | 1022.4 |
| 20260903045003 | 60 | 49 | 1.0 | 2.0 | 0.00 | 0.00 | 0.00 | 99 | 1022.7 |
| 20260903044903 | 60 | 49 | 1.0 | 2.0 | 0.00 | 0.00 | 0.00 | 99 | 1022.6 |
| 20260903044803 | 60 | 49 | 1.0 | 2.0 | 0.00 | 0.00 | 0.00 | 99 | 1022.5 |
| 20260903044705 | 60 | 48 | 1.0 | 2.0 | 0.00 | 0.00 | 0.00 | 99 | 1022.6 |
| 20260903044603 | 60 | 48 | 1.0 | 2.0 | 0.00 | 0.00 | 0.00 | 99 | 1022.7 |
| 20260903044503 | 60 | 48 | 1.0 | 2.0 | 0.00 | 0.00 | 0.00 | 99 | 1022.7 |
| 20260903044404 | 60 | 43 | 1.0 | 2.0 | 0.00 | 0.00 | 0.00 | 99 | 1022.6 |
| 20260903044303 | 60 | 41 | 1.0 | 2.0 | 0.00 | 0.00 | 0.00 | 99 | 1022.7 |
| 20260903044203 | 59 | 40 | 1.0 | 2.0 | 0.00 | 0.00 | 0.00 | 99 | 1023.0 |
| 20260903044103 | 59 | 38 | 1.0 | 2.0 | 0.00 | 0.00 | 0.00 | 99 | 1022.7 |
| 20260903044003 | 59 | 38 | 1.0 | 2.0 | 0.00 | 0.00 | 0.00 | 99 | 1022.9 |
| 20260903043903 | 59 | 37 | 1.0 | 2.0 | 0.00 | 0.00 | 0.00 | 99 | 1022.7 |
| 20260903043803 | 59 | 36 | 1.0 | 2.0 | 0.00 | 0.00 | 0.00 | 99 | 1022.8 |
| 20260903043703 | 60 | 36 | 1.0 | 2.0 | 0.00 | 0.00 | 0.00 | 99 | 1022.7 |
| 20260903043603 | 59 | 35 | 1.0 | 1.0 | 0.00 | 0.00 | 0.00 | 99 | 1022.8 |
| 20260903043503 | 59 | 37 | 1.0 | 2.0 | 0.00 | 0.00 | 0.00 | 99 | 1022.7 |
| 20260903043403 | 59 | 37 | 1.0 | 2.0 | 0.00 | 0.00 | 0.00 | 99 | 1022.8 |
| 20260903043303 | 59 | 39 | 1.0 | 2.0 | 0.00 | 0.00 | 0.00 | 99 | 1022.9 |
| 20260903043203 | 59 | 40 | 1.0 | 2.0 | 0.00 | 0.00 | 0.00 | 99 | 1022.8 |
| 20260903043103 | 59 | 42 | 1.0 | 2.0 | 0.00 | 0.00 | 0.00 | 99 | 1022.8 |
| 20260903043003 | 59 | 44 | 1.0 | 2.0 | 0.00 | 0.00 | 0.00 | 99 | 1022.7 |
| 20260903042924 | 59 | 44 | 1.0 | 2.0 | 0.00 | 0.00 | 0.00 | 99 | 1022.7 |
| 20260903042803 | 59 | 46 | 1.0 | 2.0 | 0.00 | 0.00 | 0.00 | 99 | 1022.7 |
| 20260903042703 | 59 | 48 | 1.0 | 2.0 | 0.00 | 0.00 | 0.00 | 99 | 1022.7 |
| 20260903042603 | 59 | 48 | 1.0 | 2.0 | 0.00 | 0.00 | 0.00 | 99 | 1022.8 |
| 20260903042525 | 59 | 49 | 1.0 | 2.0 | 0.00 | 0.00 | 0.00 | 99 | 1022.8 |
| 20260903042403 | 59 | 49 | 1.0 | 2.0 | 0.00 | 0.00 | 0.00 | 99 | 1022.7 |
| 20260903042306 | 59 | 51 | 2.0 | 2.0 | 0.00 | 0.00 | 0.00 | 99 | 1022.8 |
| 20260903042203 | 59 | 50 | 1.0 | 2.0 | 0.00 | 0.00 | 0.00 | 99 | 1022.9 |
| 20260903042103 | 59 | 50 | 1.0 | 2.0 | 0.00 | 0.00 | 0.00 | 99 | 1022.9 |
| 20260903042003 | 59 | 48 | 1.0 | 2.0 | 0.00 | 0.00 | 0.00 | 99 | 1022.9 |
| 20260903041903 | 59 | 48 | 1.0 | 2.0 | 0.00 | 0.00 | 0.00 | 99 | 1022.7 |
| 20260903041803 | 59 | 46 | 1.0 | 2.0 | 0.00 | 0.00 | 0.00 | 99 | 1023.0 |
| 20260903041724 | 59 | 46 | 1.0 | 2.0 | 0.00 | 0.00 | 0.00 | 99 | 1023.0 |
| 20260903041603 | 59 | 51 | 1.0 | 3.0 | 0.00 | 0.00 | 0.00 | 99 | 1023.0 |
| 20260903041524 | 59 | 51 | 1.0 | 3.0 | 0.00 | 0.00 | 0.00 | 99 | 1023.0 |
| 20260903041424 | 59 | 52 | 1.0 | 3.0 | 0.00 | 0.00 | 0.00 | 99 | 1022.9 |
| 20260903041324 | 60 | 52 | 1.0 | 3.0 | 0.00 | 0.00 | 0.00 | 99 | 1022.9 |
| 20260903041203 | 60 | 51 | 1.0 | 3.0 | 0.00 | 0.00 | 0.00 | 99 | 1023.0 |
| 20260903041103 | 60 | 58 | 1.0 | 3.0 | 0.00 | 0.00 | 0.00 | 99 | 1023.1 |
| 20260903041003 | 60 | 59 | 2.0 | 3.0 | 0.00 | 0.00 | 0.00 | 99 | 1022.9 |
| 20260903040924 | 60 | 69 | 2.0 | 4.0 | 0.00 | 0.00 | 0.00 | 99 | 1023.0 |
| 20260903040824 | 60 | 69 | 2.0 | 4.0 | 0.00 | 0.00 | 0.00 | 99 | 1022.9 |
| 20260903040703 | 60 | 72 | 2.0 | 4.0 | 0.00 | 0.00 | 0.00 | 99 | 1022.8 |
| 20260903040603 | 60 | 70 | 2.0 | 4.0 | 0.00 | 0.00 | 0.00 | 99 | 1022.9 |
| 20260903040524 | 60 | 71 | 2.0 | 4.0 | 0.00 | 0.00 | 0.00 | 99 | 1022.9 |
| 20260903040403 | 60 | 72 | 2.0 | 4.0 | 0.00 | 0.00 | 0.00 | 99 | 1023.0 |
| 20260903040324 | 60 | 72 | 2.0 | 4.0 | 0.00 | 0.00 | 0.00 | 99 | 1023.0 |
| 20260903040203 | 60 | 72 | 2.0 | 4.0 | 0.00 | 0.00 | 0.00 | 99 | 1023.0 |
| 20260903040103 | 60 | 69 | 2.0 | 4.0 | 0.00 | 0.00 | 0.00 | 99 | 1023.1 |
| 20260903040003 | 60 | 69 | 2.0 | 4.0 | 0.00 | 0.00 | 0.00 | 99 | 1023.0 |
| 20260903035903 | 60 | 63 | 2.0 | 3.0 | 0.00 | 0.00 | 0.00 | 99 | 1022.8 |
| 20260903035803 | 60 | 63 | 2.0 | 3.0 | 0.00 | 0.00 | 0.00 | 99 | 1022.8 |
| 20260903035703 | 60 | 63 | 2.0 | 3.0 | 0.00 | 0.00 | 0.00 | 99 | 1023.0 |
| 20260903035603 | 60 | 59 | 2.0 | 2.0 | 0.00 | 0.00 | 0.00 | 99 | 1023.0 |
| 20260903035503 | 60 | 59 | 2.0 | 2.0 | 0.00 | 0.00 | 0.00 | 99 | 1023.0 |
| 20260903035403 | 60 | 58 | 2.0 | 2.0 | 0.00 | 0.00 | 0.00 | 99 | 1022.9 |
| 20260903035324 | 60 | 57 | 2.0 | 2.0 | 0.00 | 0.00 | 0.00 | 99 | 1023.0 |
| 20260903035203 | 60 | 57 | 2.0 | 2.0 | 0.00 | 0.00 | 0.00 | 99 | 1023.0 |
| 20260903035103 | 60 | 55 | 2.0 | 2.0 | 0.00 | 0.00 | 0.00 | 99 | 1023.0 |
| 20260903035024 | 60 | 56 | 2.0 | 2.0 | 0.00 | 0.00 | 0.00 | 99 | 1023.0 |
| 20260903034903 | 60 | 55 | 2.0 | 2.0 | 0.00 | 0.00 | 0.00 | 99 | 1023.0 |
| 20260903034803 | 60 | 53 | 2.0 | 2.0 | 0.00 | 0.00 | 0.00 | 99 | 1023.2 |
| 20260903034703 | 60 | 51 | 1.0 | 2.0 | 0.00 | 0.00 | 0.00 | 99 | 1022.9 |
| 20260903034603 | 60 | 49 | 1.0 | 2.0 | 0.00 | 0.00 | 0.00 | 99 | 1023.0 |
| 20260903034503 | 60 | 47 | 1.0 | 2.0 | 0.00 | 0.00 | 0.00 | 99 | 1023.2 |
| 20260903034403 | 60 | 50 | 1.0 | 2.0 | 0.00 | 0.00 | 0.00 | 99 | 1023.1 |
| 20260903034303 | 60 | 51 | 1.0 | 2.0 | 0.00 | 0.00 | 0.00 | 99 | 1023.0 |
| 20260903034203 | 60 | 51 | 1.0 | 2.0 | 0.00 | 0.00 | 0.00 | 99 | 1023.0 |
| 20260903034103 | 60 | 51 | 2.0 | 2.0 | 0.00 | 0.00 | 0.00 | 99 | 1023.1 |
| 20260903034003 | 60 | 52 | 2.0 | 2.0 | 0.00 | 0.00 | 0.00 | 99 | 1023.1 |
| 20260903033924 | 60 | 51 | 2.0 | 2.0 | 0.00 | 0.00 | 0.00 | 99 | 1023.1 |
| 20260903033803 | 60 | 50 | 1.0 | 2.0 | 0.00 | 0.00 | 0.00 | 99 | 1023.0 |
| 20260903033703 | 60 | 58 | 2.0 | 3.0 | 0.00 | 0.00 | 0.00 | 99 | 1023.1 |
| 20260903033625 | 60 | 61 | 2.0 | 3.0 | 0.00 | 0.00 | 0.00 | 99 | 1023.2 |
| 20260903033503 | 60 | 67 | 2.0 | 3.0 | 0.00 | 0.00 | 0.00 | 99 | 1023.2 |
| 20260903033403 | 60 | 69 | 2.0 | 3.0 | 0.00 | 0.00 | 0.00 | 99 | 1023.2 |
| 20260903033324 | 60 | 68 | 2.0 | 3.0 | 0.00 | 0.00 | 0.00 | 99 | 1023.2 |
| 20260903033203 | 60 | 68 | 2.0 | 3.0 | 0.00 | 0.00 | 0.00 | 99 | 1023.1 |
| 20260903033103 | 60 | 69 | 2.0 | 3.0 | 0.00 | 0.00 | 0.00 | 99 | 1023.0 |
| 20260903033003 | 60 | 68 | 2.0 | 3.0 | 0.00 | 0.00 | 0.00 | 99 | 1023.3 |
| 20260903032924 | 60 | 68 | 2.0 | 3.0 | 0.00 | 0.00 | 0.00 | 99 | 1023.3 |
| 20260903032803 | 60 | 69 | 2.0 | 3.0 | 0.00 | 0.00 | 0.00 | 99 | 1023.1 |
| 20260903032703 | 60 | 63 | 2.0 | 3.0 | 0.00 | 0.00 | 0.00 | 99 | 1023.0 |
| 20260903032603 | 60 | 63 | 2.0 | 3.0 | 0.00 | 0.00 | 0.00 | 99 | 1023.0 |
| 20260903032503 | 60 | 61 | 2.0 | 3.0 | 0.00 | 0.00 | 0.00 | 99 | 1022.9 |
| 20260903032403 | 60 | 54 | 1.0 | 2.0 | 0.00 | 0.00 | 0.00 | 99 | 1023.1 |
| 20260903032324 | 60 | 51 | 1.0 | 2.0 | 0.00 | 0.00 | 0.00 | 99 | 1023.2 |
| 20260903032224 | 60 | 50 | 1.0 | 2.0 | 0.00 | 0.00 | 0.00 | 99 | 1023.0 |
| 20260903032124 | 60 | 50 | 1.0 | 2.0 | 0.00 | 0.00 | 0.00 | 99 | 1023.2 |
| 20260903032024 | 60 | 47 | 1.0 | 2.0 | 0.00 | 0.00 | 0.00 | 99 | 1023.2 |
| 20260903031903 | 60 | 46 | 1.0 | 2.0 | 0.00 | 0.00 | 0.00 | 99 | 1023.2 |
| 20260903031803 | 60 | 41 | 1.0 | 2.0 | 0.00 | 0.00 | 0.00 | 99 | 1023.3 |
| 20260903031703 | 60 | 39 | 1.0 | 2.0 | 0.00 | 0.00 | 0.00 | 99 | 1023.2 |
| 20260903031603 | 60 | 38 | 1.0 | 1.0 | 0.00 | 0.00 | 0.00 | 99 | 1023.2 |
| 20260903031503 | 60 | 40 | 1.0 | 2.0 | 0.00 | 0.00 | 0.00 | 99 | 1023.2 |
| 20260903031403 | 60 | 43 | 1.0 | 2.0 | 0.00 | 0.00 | 0.00 | 99 | 1023.1 |
| 20260903031324 | 60 | 44 | 1.0 | 2.0 | 0.00 | 0.00 | 0.00 | 99 | 1023.3 |
| 20260903031203 | 60 | 44 | 1.0 | 2.0 | 0.00 | 0.00 | 0.00 | 99 | 1023.2 |
| 20260903031103 | 60 | 44 | 1.0 | 2.0 | 0.00 | 0.00 | 0.00 | 99 | 1023.1 |
| 20260903031004 | 60 | 45 | 1.0 | 2.0 | 0.00 | 0.00 | 0.00 | 99 | 1023.1 |
| 20260903030903 | 60 | 54 | 1.0 | 3.0 | 0.00 | 0.00 | 0.00 | 99 | 1023.2 |
| 20260903030802 | 60 | 57 | 2.0 | 3.0 | 0.00 | 0.00 | 0.00 | 99 | 1023.3 |
| 20260903030702 | 60 | 57 | 1.0 | 3.0 | 0.00 | 0.00 | 0.00 | 99 | 1023.5 |
| 20260903030603 | 60 | 56 | 1.0 | 3.0 | 0.00 | 0.00 | 0.00 | 99 | 1023.1 |
| 20260903030503 | 60 | 56 | 1.0 | 3.0 | 0.00 | 0.00 | 0.00 | 99 | 1023.3 |
| 20260903030403 | 60 | 55 | 1.0 | 3.0 | 0.00 | 0.00 | 0.00 | 99 | 1023.2 |
| 20260903030303 | 60 | 55 | 1.0 | 3.0 | 0.00 | 0.00 | 0.00 | 99 | 1023.3 |
| 20260903030224 | 60 | 55 | 1.0 | 3.0 | 0.00 | 0.00 | 0.00 | 99 | 1023.3 |
| 20260903030003 | 60 | 56 | 1.0 | 3.0 | 0.00 | 0.00 | 0.00 | 99 | 1023.2 |
| 20260903025902 | 60 | 56 | 1.0 | 3.0 | 0.00 | 0.00 | 0.00 | 99 | 1023.2 |
| 20260903025802 | 60 | 47 | 1.0 | 3.0 | 0.00 | 0.00 | 0.00 | 99 | 1023.2 |
| 20260903025703 | 60 | 38 | 1.0 | 1.0 | 0.00 | 0.00 | 0.00 | 99 | 1023.1 |
| 20260903025603 | 60 | 38 | 1.0 | 1.0 | 0.00 | 0.00 | 0.00 | 99 | 1023.5 |
| 20260903025503 | 60 | 38 | 1.0 | 1.0 | 0.00 | 0.00 | 0.00 | 99 | 1023.6 |
| 20260903025403 | 60 | 38 | 1.0 | 1.0 | 0.00 | 0.00 | 0.00 | 99 | 1023.6 |
| 20260903025305 | 60 | 38 | 1.0 | 1.0 | 0.00 | 0.00 | 0.00 | 99 | 1023.6 |
| 20260903025202 | 60 | 38 | 1.0 | 1.0 | 0.00 | 0.00 | 0.00 | 99 | 1023.3 |
| 20260903025103 | 60 | 38 | 1.0 | 1.0 | 0.00 | 0.00 | 0.00 | 99 | 1023.5 |
| 20260903025003 | 60 | 38 | 1.0 | 1.0 | 0.00 | 0.00 | 0.00 | 99 | 1023.5 |
| 20260903024903 | 60 | 38 | 0.0 | 1.0 | 0.00 | 0.00 | 0.00 | 99 | 1023.5 |
| 20260903024803 | 60 | 38 | 0.0 | 1.0 | 0.00 | 0.00 | 0.00 | 99 | 1023.6 |
| 20260903024702 | 60 | 38 | 0.0 | 1.0 | 0.00 | 0.00 | 0.00 | 99 | 1023.6 |
| 20260903024603 | 60 | 38 | 0.0 | 1.0 | 0.00 | 0.00 | 0.00 | 99 | 1023.6 |
| 20260903024503 | 60 | 38 | 0.0 | 1.0 | 0.00 | 0.00 | 0.00 | 99 | 1023.6 |
| 20260903024403 | 60 | 38 | 0.0 | 1.0 | 0.00 | 0.00 | 0.00 | 99 | 1023.7 |
| 20260903024303 | 60 | 38 | 0.0 | 1.0 | 0.00 | 0.00 | 0.00 | 99 | 1023.6 |
| 20260903024224 | 60 | 38 | 0.0 | 1.0 | 0.00 | 0.00 | 0.00 | 99 | 1023.5 |
| 20260903024103 | 60 | 38 | 1.0 | 1.0 | 0.00 | 0.00 | 0.00 | 99 | 1023.7 |
| 20260903024002 | 60 | 38 | 1.0 | 1.0 | 0.00 | 0.00 | 0.00 | 99 | 1023.7 |
| 20260903023903 | 60 | 37 | 1.0 | 1.0 | 0.00 | 0.00 | 0.00 | 99 | 1023.7 |
| 20260903023802 | 60 | 37 | 1.0 | 1.0 | 0.00 | 0.00 | 0.00 | 99 | 1023.7 |
| 20260903023703 | 60 | 37 | 1.0 | 1.0 | 0.00 | 0.00 | 0.00 | 99 | 1023.5 |
| 20260903023603 | 60 | 36 | 1.0 | 1.0 | 0.00 | 0.00 | 0.00 | 99 | 1023.7 |
| 20260903023503 | 60 | 36 | 1.0 | 1.0 | 0.00 | 0.00 | 0.00 | 99 | 1023.6 |
| 20260903023403 | 60 | 36 | 1.0 | 1.0 | 0.00 | 0.00 | 0.00 | 99 | 1023.6 |
| 20260903023303 | 60 | 35 | 0.0 | 1.0 | 0.00 | 0.00 | 0.00 | 99 | 1023.7 |
| 20260903023224 | 60 | 35 | 0.0 | 1.0 | 0.00 | 0.00 | 0.00 | 99 | 1023.7 |
| 20260903023124 | 60 | 34 | 0.0 | 1.0 | 0.00 | 0.00 | 0.00 | 99 | 1023.6 |
| 20260903023002 | 60 | 33 | 0.0 | 1.0 | 0.00 | 0.00 | 0.00 | 99 | 1023.6 |
| 20260903022902 | 60 | 32 | 0.0 | 1.0 | 0.00 | 0.00 | 0.00 | 99 | 1023.7 |
| 20260903022804 | 60 | 32 | 0.0 | 1.0 | 0.00 | 0.00 | 0.00 | 99 | 1023.7 |
| 20260903022703 | 60 | 32 | 0.0 | 1.0 | 0.00 | 0.00 | 0.00 | 99 | 1023.8 |
| 20260903022603 | 60 | 32 | 0.0 | 1.0 | 0.00 | 0.00 | 0.00 | 99 | 1023.7 |
| 20260903022503 | 60 | 32 | 0.0 | 2.0 | 0.00 | 0.00 | 0.00 | 99 | 1023.8 |
| 20260903022403 | 60 | 32 | 0.0 | 2.0 | 0.00 | 0.00 | 0.00 | 99 | 1023.8 |
| 20260903022324 | 60 | 32 | 1.0 | 2.0 | 0.00 | 0.00 | 0.00 | 99 | 1023.7 |
| 20260903022203 | 60 | 32 | 1.0 | 2.0 | 0.00 | 0.00 | 0.00 | 99 | 1023.8 |
| 20260903022103 | 60 | 32 | 1.0 | 2.0 | 0.00 | 0.00 | 0.00 | 99 | 1023.7 |
| 20260903022024 | 60 | 32 | 1.0 | 2.0 | 0.00 | 0.00 | 0.00 | 99 | 1023.8 |
| 20260903021924 | 60 | 32 | 1.0 | 2.0 | 0.00 | 0.00 | 0.00 | 99 | 1023.8 |
| 20260903021802 | 60 | 32 | 1.0 | 2.0 | 0.00 | 0.00 | 0.00 | 99 | 1023.7 |
| 20260903021702 | 60 | 32 | 1.0 | 2.0 | 0.00 | 0.00 | 0.00 | 99 | 1023.7 |
| 20260903021605 | 60 | 32 | 0.0 | 2.0 | 0.00 | 0.00 | 0.00 | 99 | 1023.7 |
| 20260903021502 | 60 | 32 | 0.0 | 1.0 | 0.00 | 0.00 | 0.00 | 99 | 1023.7 |
| 20260903021424 | 60 | 32 | 0.0 | 1.0 | 0.00 | 0.00 | 0.00 | 99 | 1023.7 |
| 20260903021303 | 60 | 32 | 0.0 | 1.0 | 0.00 | 0.00 | 0.00 | 99 | 1023.8 |
| 20260903021224 | 60 | 31 | 0.0 | 1.0 | 0.00 | 0.00 | 0.00 | 99 | 1023.7 |
| 20260903021124 | 60 | 30 | 0.0 | 1.0 | 0.00 | 0.00 | 0.00 | 99 | 1023.8 |
| 20260903021003 | 60 | 30 | 0.0 | 1.0 | 0.00 | 0.00 | 0.00 | 99 | 1023.8 |
| 20260903020903 | 60 | 0 | 0.0 | 0.0 | 0.00 | 0.00 | 0.00 | 99 | 1023.9 |
| 20260903020803 | 60 | 0 | 0.0 | 0.0 | 0.00 | 0.00 | 0.00 | 99 | 1023.9 |
| 20260903020703 | 60 | 0 | 0.0 | 0.0 | 0.00 | 0.00 | 0.00 | 99 | 1023.8 |
| 20260903020603 | 60 | 0 | 0.0 | 0.0 | 0.00 | 0.00 | 0.00 | 99 | 1024.0 |
| 20260903020524 | 60 | 0 | 0.0 | 0.0 | 0.00 | 0.00 | 0.00 | 99 | 1023.9 |
| 20260903020403 | 60 | 0 | 0.0 | 0.0 | 0.00 | 0.00 | 0.00 | 99 | 1023.8 |
| 20260903020302 | 60 | 0 | 0.0 | 0.0 | 0.00 | 0.00 | 0.00 | 99 | 1023.9 |
| 20260903020202 | 60 | 0 | 0.0 | 0.0 | 0.00 | 0.00 | 0.00 | 99 | 1024.0 |
| 20260903020024 | 60 | 0 | 0.0 | 0.0 | 0.00 | 0.00 | 0.00 | 99 | 1023.8 |
| 20260903015924 | 60 | 0 | 0.0 | 0.0 | 0.00 | 0.00 | 0.00 | 99 | 1023.6 |
| 20260903015803 | 60 | 0 | 0.0 | 0.0 | 0.00 | 0.00 | 0.00 | 99 | 1023.9 |
| 20260903015703 | 60 | 30 | 0.0 | 1.0 | 0.00 | 0.00 | 0.00 | 99 | 1023.8 |
| 20260903015602 | 60 | 30 | 0.0 | 1.0 | 0.00 | 0.00 | 0.00 | 99 | 1023.7 |
| 20260903015503 | 60 | 30 | 0.0 | 1.0 | 0.00 | 0.00 | 0.00 | 99 | 1023.8 |
| 20260903015424 | 60 | 30 | 0.0 | 1.0 | 0.00 | 0.00 | 0.00 | 99 | 1023.8 |
| 20260903015305 | 60 | 30 | 0.0 | 1.0 | 0.00 | 0.00 | 0.00 | 99 | 1023.7 |
| 20260903015203 | 60 | 30 | 0.0 | 1.0 | 0.00 | 0.00 | 0.00 | 99 | 1023.7 |
| 20260903015103 | 60 | 30 | 0.0 | 1.0 | 0.00 | 0.00 | 0.00 | 99 | 1023.7 |
| 20260903015002 | 60 | 30 | 0.0 | 1.0 | 0.00 | 0.00 | 0.00 | 99 | 1023.7 |
| 20260903014924 | 60 | 31 | 0.0 | 1.0 | 0.00 | 0.00 | 0.00 | 99 | 1023.8 |
| 20260903014803 | 60 | 31 | 0.0 | 1.0 | 0.00 | 0.00 | 0.00 | 99 | 1023.8 |
| 20260903014724 | 60 | 31 | 0.0 | 1.0 | 0.00 | 0.00 | 0.00 | 99 | 1023.7 |
| 20260903014624 | 60 | 32 | 1.0 | 1.0 | 0.00 | 0.00 | 0.00 | 99 | 1023.7 |
| 20260903014503 | 60 | 32 | 1.0 | 1.0 | 0.00 | 0.00 | 0.00 | 99 | 1023.9 |
| 20260903014403 | 60 | 32 | 1.0 | 1.0 | 0.00 | 0.00 | 0.00 | 99 | 1023.7 |
| 20260903014303 | 60 | 32 | 1.0 | 1.0 | 0.00 | 0.00 | 0.00 | 99 | 1023.8 |
| 20260903014203 | 60 | 31 | 1.0 | 1.0 | 0.00 | 0.00 | 0.00 | 99 | 1023.8 |
| 20260903014124 | 60 | 31 | 1.0 | 1.0 | 0.00 | 0.00 | 0.00 | 99 | 1023.8 |
| 20260903014003 | 60 | 31 | 1.0 | 1.0 | 0.00 | 0.00 | 0.00 | 99 | 1023.9 |
| 20260903013903 | 60 | 30 | 1.0 | 1.0 | 0.00 | 0.00 | 0.00 | 99 | 1023.7 |
| 20260903013803 | 60 | 30 | 1.0 | 1.0 | 0.00 | 0.00 | 0.00 | 99 | 1023.7 |
| 20260903013703 | 60 | 30 | 1.0 | 1.0 | 0.00 | 0.00 | 0.00 | 99 | 1024.0 |
| 20260903013603 | 60 | 30 | 0.0 | 1.0 | 0.00 | 0.00 | 0.00 | 99 | 1024.0 |
| 20260903013503 | 60 | 29 | 0.0 | 1.0 | 0.00 | 0.00 | 0.00 | 99 | 1023.8 |
| 20260903013402 | 60 | 29 | 0.0 | 1.0 | 0.00 | 0.00 | 0.00 | 99 | 1023.9 |
| 20260903013302 | 60 | 28 | 0.0 | 1.0 | 0.00 | 0.00 | 0.00 | 99 | 1024.0 |
| 20260903013203 | 60 | 27 | 0.0 | 1.0 | 0.00 | 0.00 | 0.00 | 99 | 1023.7 |
| 20260903013103 | 60 | 27 | 0.0 | 1.0 | 0.00 | 0.00 | 0.00 | 99 | 1023.9 |
| 20260903013004 | 61 | 27 | 0.0 | 1.0 | 0.00 | 0.00 | 0.00 | 99 | 1023.9 |
| 20260903012903 | 61 | 26 | 0.0 | 1.0 | 0.00 | 0.00 | 0.00 | 99 | 1023.9 |
| 20260903012803 | 61 | 0 | 0.0 | 0.0 | 0.00 | 0.00 | 0.00 | 99 | 1023.8 |
| 20260903012703 | 61 | 0 | 0.0 | 0.0 | 0.00 | 0.00 | 0.00 | 99 | 1023.8 |
| 20260903012603 | 61 | 0 | 0.0 | 0.0 | 0.00 | 0.00 | 0.00 | 99 | 1024.0 |
| 20260903012503 | 61 | 0 | 0.0 | 0.0 | 0.00 | 0.00 | 0.00 | 99 | 1023.9 |
| 20260903012403 | 61 | 0 | 0.0 | 0.0 | 0.00 | 0.00 | 0.00 | 99 | 1023.9 |
| 20260903012306 | 61 | 0 | 0.0 | 0.0 | 0.00 | 0.00 | 0.00 | 99 | 1024.0 |
| 20260903012203 | 61 | 0 | 0.0 | 0.0 | 0.00 | 0.00 | 0.00 | 99 | 1024.0 |
| 20260903012103 | 61 | 0 | 0.0 | 0.0 | 0.00 | 0.00 | 0.00 | 99 | 1024.0 |
| 20260903012024 | 61 | 0 | 0.0 | 0.0 | 0.00 | 0.00 | 0.00 | 99 | 1024.0 |
| 20260903011903 | 61 | 0 | 0.0 | 0.0 | 0.00 | 0.00 | 0.00 | 99 | 1024.0 |
| 20260903011803 | 61 | 41 | 0.0 | 1.0 | 0.00 | 0.00 | 0.00 | 99 | 1024.0 |
| 20260903011703 | 61 | 41 | 0.0 | 1.0 | 0.00 | 0.00 | 0.00 | 99 | 1023.9 |
| 20260903011603 | 61 | 41 | 0.0 | 1.0 | 0.00 | 0.00 | 0.00 | 99 | 1023.9 |
| 20260903011503 | 61 | 41 | 0.0 | 1.0 | 0.00 | 0.00 | 0.00 | 99 | 1024.0 |
| 20260903011403 | 61 | 41 | 0.0 | 1.0 | 0.00 | 0.00 | 0.00 | 99 | 1024.1 |
| 20260903011303 | 61 | 41 | 0.0 | 1.0 | 0.00 | 0.00 | 0.00 | 99 | 1024.0 |
| 20260903011203 | 61 | 41 | 0.0 | 1.0 | 0.00 | 0.00 | 0.00 | 99 | 1024.0 |
| 20260903011103 | 61 | 41 | 0.0 | 1.0 | 0.00 | 0.00 | 0.00 | 99 | 1023.9 |
| 20260903011003 | 61 | 41 | 0.0 | 1.0 | 0.00 | 0.00 | 0.00 | 99 | 1023.9 |
| 20260903010924 | 61 | 41 | 0.0 | 1.0 | 0.00 | 0.00 | 0.00 | 99 | 1023.9 |
| 20260903010803 | 60 | 0 | 0.0 | 0.0 | 0.00 | 0.00 | 0.00 | 99 | 1023.9 |
| 20260903010703 | 60 | 0 | 0.0 | 0.0 | 0.00 | 0.00 | 0.00 | 99 | 1023.8 |
| 20260903010603 | 60 | 0 | 0.0 | 0.0 | 0.00 | 0.00 | 0.00 | 99 | 1023.8 |
| 20260903010524 | 60 | 0 | 0.0 | 0.0 | 0.00 | 0.00 | 0.00 | 99 | 1023.7 |
| 20260903010403 | 60 | 0 | 0.0 | 0.0 | 0.00 | 0.00 | 0.00 | 99 | 1023.9 |
| 20260903010303 | 60 | 0 | 0.0 | 0.0 | 0.00 | 0.00 | 0.00 | 99 | 1023.8 |
| 20260903010203 | 60 | 0 | 0.0 | 0.0 | 0.00 | 0.00 | 0.00 | 99 | 1023.9 |
| 20260903010124 | 60 | 0 | 0.0 | 0.0 | 0.00 | 0.00 | 0.00 | 99 | 1023.9 |
| 20260903010003 | 60 | 0 | 0.0 | 0.0 | 0.00 | 0.00 | 0.00 | 99 | 1024.0 |
| 20260903005903 | 60 | 0 | 0.0 | 0.0 | 0.00 | 0.00 | 0.00 | 99 | 1023.8 |
| 20260903005803 | 60 | 0 | 0.0 | 0.0 | 0.00 | 0.00 | 0.00 | 99 | 1024.0 |
| 20260903005724 | 60 | 42 | 0.0 | 1.0 | 0.00 | 0.00 | 0.00 | 99 | 1024.0 |
| 20260903005603 | 60 | 42 | 0.0 | 1.0 | 0.00 | 0.00 | 0.00 | 99 | 1023.9 |
| 20260903005503 | 60 | 42 | 0.0 | 1.0 | 0.00 | 0.00 | 0.00 | 99 | 1023.8 |
| 20260903005424 | 60 | 42 | 0.0 | 1.0 | 0.00 | 0.00 | 0.00 | 99 | 1023.8 |
| 20260903005324 | 60 | 42 | 0.0 | 1.0 | 0.00 | 0.00 | 0.00 | 99 | 1024.0 |
| 20260903005203 | 60 | 42 | 0.0 | 1.0 | 0.00 | 0.00 | 0.00 | 99 | 1024.0 |
| 20260903005103 | 60 | 42 | 0.0 | 1.0 | 0.00 | 0.00 | 0.00 | 99 | 1023.8 |
| 20260903005003 | 60 | 42 | 0.0 | 1.0 | 0.00 | 0.00 | 0.00 | 99 | 1023.8 |
| 20260903004924 | 60 | 42 | 1.0 | 1.0 | 0.00 | 0.00 | 0.00 | 99 | 1023.8 |
| 20260903004803 | 60 | 42 | 1.0 | 1.0 | 0.00 | 0.00 | 0.00 | 99 | 1023.8 |
| 20260903004703 | 60 | 42 | 1.0 | 1.0 | 0.00 | 0.00 | 0.00 | 99 | 1024.0 |
| 20260903004603 | 60 | 43 | 1.0 | 1.0 | 0.00 | 0.00 | 0.00 | 99 | 1024.1 |
| 20260903004503 | 60 | 45 | 1.0 | 2.0 | 0.00 | 0.00 | 0.00 | 99 | 1024.1 |
| 20260903004403 | 60 | 45 | 1.0 | 2.0 | 0.00 | 0.00 | 0.00 | 99 | 1024.1 |
| 20260903004303 | 60 | 45 | 1.0 | 2.0 | 0.00 | 0.00 | 0.00 | 99 | 1024.1 |
| 20260903004203 | 60 | 45 | 1.0 | 2.0 | 0.00 | 0.00 | 0.00 | 99 | 1024.0 |
| 20260903004124 | 60 | 46 | 1.0 | 2.0 | 0.00 | 0.00 | 0.00 | 99 | 1024.0 |
| 20260903004003 | 60 | 47 | 1.0 | 2.0 | 0.00 | 0.00 | 0.00 | 99 | 1023.9 |
| 20260903003903 | 60 | 47 | 1.0 | 2.0 | 0.00 | 0.00 | 0.00 | 99 | 1023.8 |
| 20260903003803 | 60 | 47 | 1.0 | 2.0 | 0.00 | 0.00 | 0.00 | 99 | 1024.0 |
| 20260903003703 | 60 | 46 | 1.0 | 2.0 | 0.00 | 0.00 | 0.00 | 99 | 1024.0 |
| 20260903003603 | 60 | 44 | 1.0 | 2.0 | 0.00 | 0.00 | 0.00 | 99 | 1024.1 |
| 20260903003503 | 60 | 42 | 1.0 | 2.0 | 0.00 | 0.00 | 0.00 | 99 | 1024.0 |
| 20260903003403 | 60 | 42 | 1.0 | 2.0 | 0.00 | 0.00 | 0.00 | 99 | 1024.0 |
| 20260903003324 | 60 | 41 | 1.0 | 2.0 | 0.00 | 0.00 | 0.00 | 99 | 1024.0 |
| 20260903003224 | 60 | 41 | 1.0 | 2.0 | 0.00 | 0.00 | 0.00 | 99 | 1024.2 |
| 20260903003124 | 60 | 39 | 1.0 | 2.0 | 0.00 | 0.00 | 0.00 | 99 | 1024.0 |
| 20260903003003 | 60 | 38 | 1.0 | 2.0 | 0.00 | 0.00 | 0.00 | 99 | 1024.0 |
| 20260903002903 | 60 | 35 | 1.0 | 2.0 | 0.00 | 0.00 | 0.00 | 99 | 1023.8 |
| 20260903002803 | 60 | 32 | 0.0 | 1.0 | 0.00 | 0.00 | 0.00 | 99 | 1024.0 |
| 20260903002703 | 60 | 31 | 0.0 | 1.0 | 0.00 | 0.00 | 0.00 | 99 | 1023.9 |
| 20260903002603 | 61 | 31 | 0.0 | 1.0 | 0.00 | 0.00 | 0.00 | 99 | 1024.0 |
| 20260903002503 | 61 | 31 | 0.0 | 1.0 | 0.00 | 0.00 | 0.00 | 99 | 1024.0 |
| 20260903002403 | 61 | 31 | 0.0 | 1.0 | 0.00 | 0.00 | 0.00 | 99 | 1024.0 |
| 20260903002306 | 61 | 30 | 0.0 | 1.0 | 0.00 | 0.00 | 0.00 | 99 | 1024.0 |
| 20260903002203 | 61 | 30 | 0.0 | 1.0 | 0.00 | 0.00 | 0.00 | 99 | 1024.0 |
| 20260903002103 | 61 | 30 | 0.0 | 1.0 | 0.00 | 0.00 | 0.00 | 99 | 1023.9 |
| 20260903002003 | 61 | 0 | 0.0 | 0.0 | 0.00 | 0.00 | 0.00 | 99 | 1023.8 |
| 20260903001903 | 61 | 0 | 0.0 | 0.0 | 0.00 | 0.00 | 0.00 | 99 | 1024.1 |
| 20260903001803 | 61 | 0 | 0.0 | 0.0 | 0.00 | 0.00 | 0.00 | 99 | 1024.1 |
| 20260903001724 | 61 | 0 | 0.0 | 0.0 | 0.00 | 0.00 | 0.00 | 99 | 1023.9 |
| 20260903001624 | 61 | 0 | 0.0 | 0.0 | 0.00 | 0.00 | 0.00 | 99 | 1024.0 |
| 20260903001503 | 61 | 0 | 0.0 | 0.0 | 0.00 | 0.00 | 0.00 | 99 | 1024.0 |
| 20260903001403 | 61 | 0 | 0.0 | 0.0 | 0.00 | 0.00 | 0.00 | 99 | 1024.1 |
| 20260903001303 | 61 | 0 | 0.0 | 0.0 | 0.00 | 0.00 | 0.00 | 99 | 1024.2 |
| 20260903001203 | 61 | 0 | 0.0 | 0.0 | 0.00 | 0.00 | 0.00 | 99 | 1024.2 |
| 20260903001103 | 61 | 31 | 0.0 | 1.0 | 0.00 | 0.00 | 0.00 | 99 | 1023.9 |
| 20260903001003 | 61 | 30 | 0.0 | 1.0 | 0.00 | 0.00 | 0.00 | 99 | 1024.1 |
| 20260903000903 | 61 | 29 | 0.0 | 1.0 | 0.00 | 0.00 | 0.00 | 99 | 1024.2 |
| 20260903000803 | 61 | 29 | 0.0 | 1.0 | 0.00 | 0.00 | 0.00 | 99 | 1024.1 |
| 20260903000703 | 61 | 29 | 0.0 | 1.0 | 0.00 | 0.00 | 0.00 | 99 | 1024.2 |
| 20260903000624 | 61 | 29 | 0.0 | 1.0 | 0.00 | 0.00 | 0.00 | 99 | 1024.2 |
| 20260903000503 | 61 | 29 | 0.0 | 1.0 | 0.00 | 0.00 | 0.00 | 99 | 1024.1 |
| 20260903000403 | 61 | 29 | 0.0 | 1.0 | 0.00 | 0.00 | 0.00 | 99 | 1024.2 |
| 20260903000303 | 61 | 29 | 0.0 | 1.0 | 0.00 | 0.00 | 0.00 | 99 | 1024.0 |
| 20260903000204 | 61 | 29 | 0.0 | 1.0 | 0.00 | 0.00 | 0.00 | 99 | 1024.0 |
| 20260903000003 | 60 | 27 | 0.0 | 1.0 | 0.00 | 0.00 | 0.00 | 99 | 1024.1 |
| 20260902235903 | 60 | 26 | 0.0 | 1.0 | 0.00 | 0.00 | 0.00 | 99 | 1024.2 |
| 20260902235803 | 60 | 0 | 0.0 | 0.0 | 0.00 | 0.00 | 0.00 | 99 | 1024.1 |
| 20260902235703 | 60 | 0 | 0.0 | 0.0 | 0.00 | 0.00 | 0.00 | 99 | 1024.1 |
| 20260902235603 | 61 | 0 | 0.0 | 0.0 | 0.00 | 0.00 | 0.00 | 99 | 1024.3 |
| 20260902235503 | 61 | 0 | 0.0 | 0.0 | 0.00 | 0.00 | 0.00 | 99 | 1024.2 |
| 20260902235403 | 61 | 31 | 0.0 | 1.0 | 0.00 | 0.00 | 0.00 | 99 | 1024.2 |
| 20260902235305 | 61 | 31 | 0.0 | 1.0 | 0.00 | 0.00 | 0.00 | 99 | 1024.3 |
| 20260902235203 | 61 | 31 | 0.0 | 1.0 | 0.00 | 0.00 | 0.00 | 99 | 1024.2 |
| 20260902235124 | 61 | 31 | 0.0 | 1.0 | 0.00 | 0.00 | 0.00 | 99 | 1024.2 |
| 20260902235003 | 61 | 31 | 0.0 | 1.0 | 0.00 | 0.00 | 0.00 | 99 | 1024.2 |
| 20260902234903 | 61 | 31 | 0.0 | 1.0 | 0.00 | 0.00 | 0.00 | 99 | 1024.3 |
| 20260902234824 | 61 | 31 | 0.0 | 1.0 | 0.00 | 0.00 | 0.00 | 99 | 1024.3 |
| 20260902234703 | 61 | 34 | 0.0 | 1.0 | 0.00 | 0.00 | 0.00 | 99 | 1024.4 |
| 20260902234603 | 61 | 34 | 0.0 | 1.0 | 0.00 | 0.00 | 0.00 | 99 | 1024.4 |
| 20260902234503 | 61 | 34 | 1.0 | 1.0 | 0.00 | 0.00 | 0.00 | 99 | 1024.3 |
| 20260902234424 | 61 | 34 | 1.0 | 1.0 | 0.00 | 0.00 | 0.00 | 99 | 1024.4 |
| 20260902234303 | 61 | 34 | 1.0 | 1.0 | 0.00 | 0.00 | 0.00 | 99 | 1024.3 |
| 20260902234224 | 61 | 34 | 1.0 | 1.0 | 0.00 | 0.00 | 0.00 | 99 | 1024.3 |
| 20260902234103 | 61 | 35 | 1.0 | 1.0 | 0.00 | 0.00 | 0.00 | 99 | 1024.4 |
| 20260902234024 | 61 | 36 | 1.0 | 1.0 | 0.00 | 0.00 | 0.00 | 99 | 1024.4 |
| 20260902233906 | 61 | 37 | 1.0 | 1.0 | 0.00 | 0.00 | 0.00 | 99 | 1024.4 |
| 20260902233803 | 61 | 36 | 1.0 | 1.0 | 0.00 | 0.00 | 0.00 | 99 | 1024.4 |
| 20260902233724 | 61 | 36 | 1.0 | 1.0 | 0.00 | 0.00 | 0.00 | 99 | 1024.5 |
| 20260902233603 | 61 | 33 | 1.0 | 1.0 | 0.00 | 0.00 | 0.00 | 99 | 1024.4 |
| 20260902233503 | 60 | 30 | 1.0 | 1.0 | 0.00 | 0.00 | 0.00 | 99 | 1024.4 |
| 20260902233403 | 61 | 30 | 1.0 | 1.0 | 0.00 | 0.00 | 0.00 | 99 | 1024.3 |
| 20260902233303 | 61 | 29 | 1.0 | 1.0 | 0.00 | 0.00 | 0.00 | 99 | 1024.4 |
| 20260902233203 | 61 | 29 | 1.0 | 1.0 | 0.00 | 0.00 | 0.00 | 99 | 1024.3 |
| 20260902233103 | 61 | 28 | 1.0 | 1.0 | 0.00 | 0.00 | 0.00 | 99 | 1024.4 |
| 20260902233003 | 61 | 26 | 0.0 | 1.0 | 0.00 | 0.00 | 0.00 | 99 | 1024.2 |
| 20260902232903 | 61 | 22 | 0.0 | 1.0 | 0.00 | 0.00 | 0.00 | 99 | 1024.3 |
| 20260902232803 | 61 | 18 | 0.0 | 1.0 | 0.00 | 0.00 | 0.00 | 99 | 1024.1 |
| 20260902232724 | 61 | 18 | 0.0 | 1.0 | 0.00 | 0.00 | 0.00 | 99 | 1024.1 |
| 20260902232603 | 61 | 10 | 0.0 | 1.0 | 0.00 | 0.00 | 0.00 | 99 | 1024.2 |
| 20260902232503 | 61 | 10 | 0.0 | 1.0 | 0.00 | 0.00 | 0.00 | 99 | 1024.2 |
| 20260902232403 | 61 | 0 | 0.0 | 0.0 | 0.00 | 0.00 | 0.00 | 99 | 1024.3 |
| 20260902232306 | 61 | 0 | 0.0 | 0.0 | 0.00 | 0.00 | 0.00 | 99 | 1024.1 |
| 20260902232224 | 61 | 0 | 0.0 | 0.0 | 0.00 | 0.00 | 0.00 | 99 | 1024.3 |
| 20260902232103 | 61 | 0 | 0.0 | 0.0 | 0.00 | 0.00 | 0.00 | 99 | 1024.4 |
| 20260902232024 | 61 | 0 | 0.0 | 0.0 | 0.00 | 0.00 | 0.00 | 99 | 1024.2 |
| 20260902231903 | 61 | 0 | 0.0 | 0.0 | 0.00 | 0.00 | 0.00 | 99 | 1024.2 |
| 20260902231803 | 61 | 0 | 0.0 | 0.0 | 0.00 | 0.00 | 0.00 | 99 | 1024.3 |
| 20260902231703 | 61 | 0 | 0.0 | 0.0 | 0.00 | 0.00 | 0.00 | 99 | 1024.3 |
| 20260902231603 | 61 | 0 | 0.0 | 0.0 | 0.00 | 0.00 | 0.00 | 99 | 1024.4 |
| 20260902231503 | 60 | 0 | 0.0 | 0.0 | 0.00 | 0.00 | 0.00 | 99 | 1024.1 |
| 20260902231403 | 60 | 0 | 0.0 | 0.0 | 0.00 | 0.00 | 0.00 | 99 | 1024.4 |
| 20260902231303 | 60 | 0 | 0.0 | 0.0 | 0.00 | 0.00 | 0.00 | 99 | 1024.3 |
| 20260902231203 | 60 | 0 | 0.0 | 0.0 | 0.00 | 0.00 | 0.00 | 99 | 1024.3 |
| 20260902231103 | 60 | 0 | 0.0 | 0.0 | 0.00 | 0.00 | 0.00 | 99 | 1024.2 |
| 20260902231003 | 60 | 0 | 0.0 | 0.0 | 0.00 | 0.00 | 0.00 | 99 | 1024.2 |
| 20260902230903 | 60 | 0 | 0.0 | 0.0 | 0.00 | 0.00 | 0.00 | 99 | 1024.5 |
| 20260902230803 | 60 | 0 | 0.0 | 0.0 | 0.00 | 0.00 | 0.00 | 99 | 1024.3 |
| 20260902230724 | 60 | 0 | 0.0 | 0.0 | 0.00 | 0.00 | 0.00 | 99 | 1024.5 |
| 20260902230603 | 60 | 0 | 0.0 | 0.0 | 0.00 | 0.00 | 0.00 | 99 | 1024.3 |
| 20260902230524 | 60 | 0 | 0.0 | 0.0 | 0.00 | 0.00 | 0.00 | 99 | 1024.3 |
| 20260902230403 | 60 | 0 | 0.0 | 0.0 | 0.00 | 0.00 | 0.00 | 99 | 1024.3 |
| 20260902230303 | 61 | 0 | 0.0 | 0.0 | 0.00 | 0.00 | 0.00 | 99 | 1024.5 |
| 20260902230224 | 61 | 0 | 0.0 | 0.0 | 0.00 | 0.00 | 0.00 | 99 | 1024.4 |
| 20260902230003 | 61 | 0 | 0.0 | 0.0 | 0.00 | 0.00 | 0.00 | 99 | 1024.4 |
| 20260902225924 | 61 | 0 | 0.0 | 0.0 | 0.00 | 0.00 | 0.00 | 99 | 1024.4 |
| 20260902225803 | 61 | 0 | 0.0 | 0.0 | 0.00 | 0.00 | 0.00 | 99 | 1024.2 |
| 20260902225724 | 61 | 0 | 0.0 | 0.0 | 0.00 | 0.00 | 0.00 | 99 | 1024.2 |
| 20260902225603 | 61 | 0 | 0.0 | 0.0 | 0.00 | 0.00 | 0.00 | 99 | 1024.5 |
| 20260902225524 | 61 | 0 | 0.0 | 0.0 | 0.00 | 0.00 | 0.00 | 99 | 1024.5 |
| 20260902225403 | 61 | 0 | 0.0 | 0.0 | 0.00 | 0.00 | 0.00 | 99 | 1024.4 |
| 20260902225306 | 61 | 0 | 0.0 | 0.0 | 0.00 | 0.00 | 0.00 | 99 | 1024.5 |
| 20260902225203 | 61 | 0 | 0.0 | 0.0 | 0.00 | 0.00 | 0.00 | 99 | 1024.5 |
| 20260902225103 | 61 | 0 | 0.0 | 0.0 | 0.00 | 0.00 | 0.00 | 99 | 1024.6 |
| 20260902225003 | 61 | 0 | 0.0 | 0.0 | 0.00 | 0.00 | 0.00 | 99 | 1024.5 |
| 20260902224903 | 61 | 0 | 0.0 | 0.0 | 0.00 | 0.00 | 0.00 | 99 | 1024.4 |
| 20260902224803 | 61 | 0 | 0.0 | 0.0 | 0.00 | 0.00 | 0.00 | 99 | 1024.6 |
| 20260902224724 | 61 | 0 | 0.0 | 0.0 | 0.00 | 0.00 | 0.00 | 99 | 1024.5 |
| 20260902224603 | 61 | 0 | 0.0 | 0.0 | 0.00 | 0.00 | 0.00 | 99 | 1024.3 |
| 20260902224524 | 61 | 0 | 0.0 | 0.0 | 0.00 | 0.00 | 0.00 | 99 | 1024.4 |
| 20260902224424 | 61 | 0 | 0.0 | 0.0 | 0.00 | 0.00 | 0.00 | 99 | 1024.7 |
| 20260902224303 | 61 | 0 | 0.0 | 0.0 | 0.00 | 0.00 | 0.00 | 99 | 1024.5 |
| 20260902224203 | 61 | 0 | 0.0 | 0.0 | 0.00 | 0.00 | 0.00 | 99 | 1024.4 |
| 20260902224103 | 61 | 0 | 0.0 | 0.0 | 0.00 | 0.00 | 0.00 | 99 | 1024.4 |
| 20260902224024 | 61 | 0 | 0.0 | 0.0 | 0.00 | 0.00 | 0.00 | 99 | 1024.4 |
| 20260902223903 | 62 | 9 | 0.0 | 1.0 | 0.00 | 0.00 | 0.00 | 99 | 1024.4 |
| 20260902223803 | 62 | 9 | 0.0 | 1.0 | 0.00 | 0.00 | 0.00 | 99 | 1024.4 |
| 20260902223703 | 62 | 9 | 0.0 | 1.0 | 0.00 | 0.00 | 0.00 | 99 | 1024.6 |
| 20260902223603 | 62 | 9 | 0.0 | 1.0 | 0.00 | 0.00 | 0.00 | 99 | 1024.5 |
| 20260902223503 | 62 | 9 | 0.0 | 1.0 | 0.00 | 0.00 | 0.00 | 99 | 1024.6 |
| 20260902223403 | 62 | 9 | 0.0 | 1.0 | 0.00 | 0.00 | 0.00 | 99 | 1024.4 |
| 20260902223303 | 62 | 9 | 0.0 | 1.0 | 0.00 | 0.00 | 0.00 | 99 | 1024.3 |
| 20260902223203 | 62 | 9 | 0.0 | 1.0 | 0.00 | 0.00 | 0.00 | 99 | 1024.7 |
| 20260902223103 | 62 | 9 | 0.0 | 1.0 | 0.00 | 0.00 | 0.00 | 99 | 1024.5 |
| 20260902223003 | 62 | 9 | 0.0 | 1.0 | 0.00 | 0.00 | 0.00 | 99 | 1024.5 |
| 20260902222924 | 62 | 9 | 0.0 | 1.0 | 0.00 | 0.00 | 0.00 | 99 | 1024.5 |
| 20260902222803 | 62 | 9 | 0.0 | 1.0 | 0.00 | 0.00 | 0.00 | 99 | 1024.5 |
| 20260902222703 | 62 | 9 | 0.0 | 1.0 | 0.00 | 0.00 | 0.00 | 99 | 1024.6 |
| 20260902222603 | 62 | 0 | 0.0 | 0.0 | 0.00 | 0.00 | 0.00 | 99 | 1024.6 |
| 20260902222503 | 62 | 0 | 0.0 | 0.0 | 0.00 | 0.00 | 0.00 | 99 | 1024.6 |
| 20260902222403 | 62 | 0 | 0.0 | 0.0 | 0.00 | 0.00 | 0.00 | 99 | 1024.5 |
| 20260902222305 | 62 | 0 | 0.0 | 0.0 | 0.00 | 0.00 | 0.00 | 99 | 1024.5 |
| 20260902222203 | 62 | 0 | 0.0 | 0.0 | 0.00 | 0.00 | 0.00 | 99 | 1024.5 |
| 20260902222103 | 62 | 0 | 0.0 | 0.0 | 0.00 | 0.00 | 0.00 | 99 | 1024.5 |
| 20260902222003 | 62 | 0 | 0.0 | 0.0 | 0.00 | 0.00 | 0.00 | 99 | 1024.5 |
| 20260902221903 | 62 | 9 | 0.0 | 1.0 | 0.00 | 0.00 | 0.00 | 99 | 1024.5 |
| 20260902221803 | 62 | 9 | 0.0 | 1.0 | 0.00 | 0.00 | 0.00 | 99 | 1024.7 |
| 20260902221703 | 62 | 9 | 0.0 | 1.0 | 0.00 | 0.00 | 0.00 | 99 | 1024.6 |
| 20260902221603 | 62 | 9 | 0.0 | 1.0 | 0.00 | 0.00 | 0.00 | 99 | 1024.6 |
| 20260902221503 | 62 | 9 | 0.0 | 1.0 | 0.00 | 0.00 | 0.00 | 99 | 1024.5 |
| 20260902221403 | 62 | 9 | 0.0 | 1.0 | 0.00 | 0.00 | 0.00 | 99 | 1024.6 |
| 20260902221303 | 62 | 9 | 0.0 | 1.0 | 0.00 | 0.00 | 0.00 | 99 | 1024.6 |
| 20260902221203 | 62 | 9 | 0.0 | 1.0 | 0.00 | 0.00 | 0.00 | 99 | 1024.5 |
| 20260902221103 | 62 | 9 | 0.0 | 1.0 | 0.00 | 0.00 | 0.00 | 99 | 1024.6 |
| 20260902221003 | 62 | 9 | 0.0 | 1.0 | 0.00 | 0.00 | 0.00 | 99 | 1024.5 |
| 20260902220924 | 62 | 9 | 0.0 | 1.0 | 0.00 | 0.00 | 0.00 | 99 | 1024.5 |
| 20260902220803 | 62 | 9 | 0.0 | 1.0 | 0.00 | 0.00 | 0.00 | 99 | 1024.6 |
| 20260902220703 | 62 | 9 | 0.0 | 1.0 | 0.00 | 0.00 | 0.00 | 99 | 1024.6 |
| 20260902220624 | 62 | 9 | 0.0 | 1.0 | 0.00 | 0.00 | 0.00 | 99 | 1024.6 |
| 20260902220503 | 62 | 9 | 0.0 | 1.0 | 0.00 | 0.00 | 0.00 | 99 | 1024.4 |
| 20260902220403 | 62 | 9 | 0.0 | 1.0 | 0.00 | 0.00 | 0.00 | 99 | 1024.7 |
| 20260902220303 | 62 | 9 | 0.0 | 1.0 | 0.00 | 0.00 | 0.00 | 99 | 1024.5 |
| 20260902220203 | 62 | 9 | 0.0 | 1.0 | 0.00 | 0.00 | 0.00 | 99 | 1024.5 |
| 20260902220003 | 62 | 9 | 0.0 | 1.0 | 0.00 | 0.00 | 0.00 | 99 | 1024.6 |
| 20260902215903 | 62 | 9 | 0.0 | 1.0 | 0.00 | 0.00 | 0.00 | 99 | 1024.5 |
| 20260902215803 | 62 | 0 | 0.0 | 0.0 | 0.00 | 0.00 | 0.00 | 99 | 1024.6 |
| 20260902215703 | 62 | 0 | 0.0 | 0.0 | 0.00 | 0.00 | 0.00 | 99 | 1024.7 |
| 20260902215624 | 62 | 0 | 0.0 | 0.0 | 0.00 | 0.00 | 0.00 | 99 | 1024.7 |
| 20260902215503 | 62 | 0 | 0.0 | 0.0 | 0.00 | 0.00 | 0.00 | 99 | 1024.5 |
| 20260902215403 | 62 | 0 | 0.0 | 0.0 | 0.00 | 0.00 | 0.00 | 99 | 1024.3 |
| 20260902215306 | 62 | 0 | 0.0 | 0.0 | 0.00 | 0.00 | 0.00 | 99 | 1024.4 |
| 20260902215203 | 62 | 0 | 0.0 | 0.0 | 0.00 | 0.00 | 0.00 | 99 | 1024.4 |
| 20260902215103 | 62 | 0 | 0.0 | 0.0 | 0.00 | 0.00 | 0.00 | 99 | 1024.5 |
| 20260902215024 | 62 | 0 | 0.0 | 0.0 | 0.00 | 0.00 | 0.00 | 99 | 1024.5 |
| 20260902214924 | 62 | 0 | 0.0 | 0.0 | 0.00 | 0.00 | 0.00 | 99 | 1024.6 |
| 20260902214803 | 62 | 0 | 0.0 | 0.0 | 0.00 | 0.00 | 0.00 | 99 | 1024.7 |
| 20260902214703 | 62 | 0 | 0.0 | 0.0 | 0.00 | 0.00 | 0.00 | 99 | 1024.5 |
| 20260902214603 | 62 | 0 | 0.0 | 0.0 | 0.00 | 0.00 | 0.00 | 99 | 1024.5 |
| 20260902214503 | 62 | 0 | 0.0 | 0.0 | 0.00 | 0.00 | 0.00 | 99 | 1024.5 |
| 20260902214403 | 62 | 0 | 0.0 | 0.0 | 0.00 | 0.00 | 0.00 | 99 | 1024.4 |
| 20260902214303 | 62 | 0 | 0.0 | 0.0 | 0.00 | 0.00 | 0.00 | 99 | 1024.5 |
| 20260902214203 | 62 | 0 | 0.0 | 0.0 | 0.00 | 0.00 | 0.00 | 99 | 1024.5 |
| 20260902214103 | 62 | 0 | 0.0 | 0.0 | 0.00 | 0.00 | 0.00 | 99 | 1024.5 |
| 20260902214003 | 62 | 0 | 0.0 | 0.0 | 0.00 | 0.00 | 0.00 | 99 | 1024.5 |
| 20260902213924 | 62 | 0 | 0.0 | 0.0 | 0.00 | 0.00 | 0.00 | 99 | 1024.5 |
| 20260902213824 | 62 | 0 | 0.0 | 0.0 | 0.00 | 0.00 | 0.00 | 98 | 1024.4 |
| 20260902213703 | 62 | 9 | 0.0 | 1.0 | 0.00 | 0.00 | 0.00 | 98 | 1024.4 |
| 20260902213624 | 62 | 9 | 0.0 | 1.0 | 0.00 | 0.00 | 0.00 | 98 | 1024.4 |
| 20260902213524 | 62 | 9 | 0.0 | 1.0 | 0.00 | 0.00 | 0.00 | 98 | 1024.5 |
| 20260902213403 | 63 | 9 | 0.0 | 1.0 | 0.00 | 0.00 | 0.00 | 98 | 1024.4 |
| 20260902213324 | 63 | 9 | 0.0 | 1.0 | 0.00 | 0.00 | 0.00 | 98 | 1024.5 |
| 20260902213203 | 63 | 9 | 0.0 | 1.0 | 0.00 | 0.00 | 0.00 | 98 | 1024.4 |
| 20260902213103 | 63 | 9 | 0.0 | 1.0 | 0.00 | 0.00 | 0.00 | 98 | 1024.4 |
| 20260902213003 | 63 | 9 | 0.0 | 1.0 | 0.00 | 0.00 | 0.00 | 98 | 1024.3 |
| 20260902212903 | 63 | 9 | 0.0 | 1.0 | 0.00 | 0.00 | 0.00 | 98 | 1024.4 |
| 20260902212803 | 63 | 9 | 0.0 | 1.0 | 0.00 | 0.00 | 0.00 | 98 | 1024.3 |
| 20260902212703 | 63 | 9 | 0.0 | 1.0 | 0.00 | 0.00 | 0.00 | 98 | 1024.4 |
| 20260902212603 | 63 | 0 | 0.0 | 0.0 | 0.00 | 0.00 | 0.00 | 98 | 1024.4 |
| 20260902212503 | 63 | 0 | 0.0 | 0.0 | 0.00 | 0.00 | 0.00 | 98 | 1024.4 |
| 20260902212403 | 63 | 0 | 0.0 | 0.0 | 0.00 | 0.00 | 0.00 | 98 | 1024.4 |
| 20260902212305 | 63 | 0 | 0.0 | 0.0 | 0.00 | 0.00 | 0.00 | 98 | 1024.3 |
| 20260902212203 | 63 | 0 | 0.0 | 0.0 | 0.00 | 0.00 | 0.00 | 98 | 1024.4 |
| 20260902212103 | 63 | 0 | 0.0 | 0.0 | 0.00 | 0.00 | 0.00 | 98 | 1024.4 |
| 20260902212003 | 63 | 9 | 0.0 | 1.0 | 0.00 | 0.00 | 0.00 | 98 | 1024.4 |
| 20260902211903 | 63 | 9 | 0.0 | 1.0 | 0.00 | 0.00 | 0.00 | 98 | 1024.5 |
| 20260902211803 | 63 | 9 | 0.0 | 1.0 | 0.00 | 0.00 | 0.00 | 98 | 1024.5 |
| 20260902211703 | 63 | 9 | 0.0 | 1.0 | 0.00 | 0.00 | 0.00 | 98 | 1024.3 |
| 20260902211603 | 63 | 9 | 0.0 | 1.0 | 0.00 | 0.00 | 0.00 | 98 | 1024.4 |
| 20260902211524 | 63 | 9 | 0.0 | 1.0 | 0.00 | 0.00 | 0.00 | 98 | 1024.4 |
| 20260902211403 | 63 | 9 | 0.0 | 1.0 | 0.00 | 0.00 | 0.00 | 98 | 1024.4 |
| 20260902211324 | 63 | 9 | 0.0 | 1.0 | 0.00 | 0.00 | 0.00 | 98 | 1024.2 |
| 20260902211203 | 63 | 9 | 0.0 | 1.0 | 0.00 | 0.00 | 0.00 | 98 | 1024.3 |
| 20260902211103 | 63 | 9 | 0.0 | 1.0 | 0.00 | 0.00 | 0.00 | 98 | 1024.2 |
| 20260902211003 | 63 | 9 | 0.0 | 1.0 | 0.00 | 0.00 | 0.00 | 98 | 1024.3 |
| 20260902210903 | 63 | 9 | 0.0 | 1.0 | 0.00 | 0.00 | 0.00 | 98 | 1024.3 |
| 20260902210803 | 63 | 9 | 0.0 | 1.0 | 0.00 | 0.00 | 0.00 | 98 | 1024.3 |
| 20260902210703 | 63 | 9 | 0.0 | 1.0 | 0.00 | 0.00 | 0.00 | 98 | 1024.2 |
| 20260902210603 | 63 | 9 | 0.0 | 1.0 | 0.00 | 0.00 | 0.00 | 98 | 1024.4 |
| 20260902210524 | 63 | 9 | 0.0 | 1.0 | 0.00 | 0.00 | 0.00 | 98 | 1024.4 |
| 20260902210403 | 63 | 0 | 0.0 | 0.0 | 0.00 | 0.00 | 0.00 | 98 | 1024.1 |
| 20260902210324 | 63 | 0 | 0.0 | 0.0 | 0.00 | 0.00 | 0.00 | 98 | 1024.1 |
| 20260902210203 | 63 | 0 | 0.0 | 0.0 | 0.00 | 0.00 | 0.00 | 98 | 1024.2 |
| 20260902210103 | 63 | 0 | 0.0 | 0.0 | 0.00 | 0.00 | 0.00 | 98 | 1024.2 |
| 20260902210024 | 63 | 0 | 0.0 | 0.0 | 0.00 | 0.00 | 0.00 | 98 | 1024.2 |
| 20260902205903 | 63 | 0 | 0.0 | 0.0 | 0.00 | 0.00 | 0.00 | 98 | 1024.2 |
| 20260902205824 | 63 | 0 | 0.0 | 0.0 | 0.00 | 0.00 | 0.00 | 98 | 1024.2 |
| 20260902205703 | 63 | 0 | 0.0 | 0.0 | 0.00 | 0.00 | 0.00 | 98 | 1024.2 |
| 20260902205603 | 64 | 0 | 0.0 | 0.0 | 0.00 | 0.00 | 0.00 | 98 | 1024.3 |
| 20260902205503 | 64 | 0 | 0.0 | 0.0 | 0.00 | 0.00 | 0.00 | 98 | 1024.2 |
| 20260902205403 | 64 | 0 | 0.0 | 0.0 | 0.00 | 0.00 | 0.00 | 98 | 1024.3 |
| 20260902205324 | 64 | 0 | 0.0 | 0.0 | 0.00 | 0.00 | 0.00 | 98 | 1024.2 |
| 20260902205203 | 64 | 0 | 0.0 | 0.0 | 0.00 | 0.00 | 0.00 | 98 | 1024.2 |
| 20260902205103 | 64 | 0 | 0.0 | 0.0 | 0.00 | 0.00 | 0.00 | 98 | 1024.2 |
| 20260902205024 | 64 | 0 | 0.0 | 0.0 | 0.00 | 0.00 | 0.00 | 98 | 1024.2 |
| 20260902204924 | 64 | 0 | 0.0 | 0.0 | 0.00 | 0.00 | 0.00 | 98 | 1024.3 |
| 20260902204803 | 63 | 9 | 0.0 | 1.0 | 0.00 | 0.00 | 0.00 | 98 | 1024.2 |
| 20260902204703 | 63 | 9 | 0.0 | 1.0 | 0.00 | 0.00 | 0.00 | 98 | 1024.1 |
| 20260902204603 | 63 | 9 | 0.0 | 1.0 | 0.00 | 0.00 | 0.00 | 98 | 1024.1 |
| 20260902204503 | 64 | 9 | 0.0 | 1.0 | 0.00 | 0.00 | 0.00 | 98 | 1024.0 |
| 20260902204403 | 64 | 9 | 0.0 | 1.0 | 0.00 | 0.00 | 0.00 | 98 | 1023.9 |
| 20260902204303 | 64 | 9 | 0.0 | 1.0 | 0.00 | 0.00 | 0.00 | 97 | 1024.0 |
| 20260902204203 | 64 | 9 | 0.0 | 1.0 | 0.00 | 0.00 | 0.00 | 97 | 1024.0 |
| 20260902204103 | 64 | 9 | 0.0 | 1.0 | 0.00 | 0.00 | 0.00 | 97 | 1024.0 |
| 20260902204003 | 64 | 9 | 0.0 | 1.0 | 0.00 | 0.00 | 0.00 | 98 | 1024.1 |
| 20260902203903 | 64 | 9 | 0.0 | 1.0 | 0.00 | 0.00 | 0.00 | 97 | 1024.1 |
| 20260902203803 | 64 | 9 | 0.0 | 1.0 | 0.00 | 0.00 | 0.00 | 97 | 1024.1 |
| 20260902203724 | 64 | 0 | 0.0 | 0.0 | 0.00 | 0.00 | 0.00 | 97 | 1024.0 |
| 20260902203624 | 64 | 0 | 0.0 | 0.0 | 0.00 | 0.00 | 0.00 | 97 | 1023.9 |
| 20260902203503 | 64 | 0 | 0.0 | 0.0 | 0.00 | 0.00 | 0.00 | 97 | 1024.0 |
| 20260902203424 | 64 | 0 | 0.0 | 0.0 | 0.00 | 0.00 | 0.00 | 97 | 1024.0 |
| 20260902203303 | 64 | 0 | 0.0 | 0.0 | 0.00 | 0.00 | 0.00 | 97 | 1024.1 |
| 20260902203203 | 63 | 0 | 0.0 | 0.0 | 0.00 | 0.00 | 0.00 | 97 | 1024.0 |
| 20260902203103 | 63 | 0 | 0.0 | 0.0 | 0.00 | 0.00 | 0.00 | 97 | 1024.1 |
| 20260902203003 | 63 | 0 | 0.0 | 0.0 | 0.00 | 0.00 | 0.00 | 97 | 1024.1 |
| 20260902202924 | 63 | 0 | 0.0 | 0.0 | 0.00 | 0.00 | 0.00 | 97 | 1024.1 |
| 20260902202803 | 64 | 0 | 0.0 | 0.0 | 0.00 | 0.00 | 0.00 | 97 | 1023.9 |
| 20260902202703 | 64 | 0 | 0.0 | 0.0 | 0.00 | 0.00 | 0.00 | 97 | 1024.1 |
| 20260902202603 | 64 | 0 | 0.0 | 0.0 | 0.00 | 0.00 | 0.00 | 97 | 1024.0 |
| 20260902202503 | 64 | 0 | 0.0 | 0.0 | 0.00 | 0.00 | 0.00 | 97 | 1024.1 |
| 20260902202403 | 64 | 0 | 0.0 | 0.0 | 0.00 | 0.00 | 0.00 | 97 | 1023.8 |
| 20260902202324 | 64 | 0 | 0.0 | 0.0 | 0.00 | 0.00 | 0.00 | 97 | 1023.9 |
| 20260902202224 | 64 | 0 | 0.0 | 0.0 | 0.00 | 0.00 | 0.00 | 97 | 1024.0 |
| 20260902202103 | 64 | 0 | 0.0 | 0.0 | 0.00 | 0.00 | 0.00 | 97 | 1023.9 |
| 20260902202003 | 64 | 0 | 0.0 | 0.0 | 0.00 | 0.00 | 0.00 | 97 | 1023.7 |
| 20260902201903 | 64 | 0 | 0.0 | 0.0 | 0.00 | 0.00 | 0.00 | 97 | 1024.1 |
| 20260902201803 | 64 | 0 | 0.0 | 0.0 | 0.00 | 0.00 | 0.00 | 97 | 1024.0 |
| 20260902201703 | 64 | 0 | 0.0 | 0.0 | 0.00 | 0.00 | 0.00 | 97 | 1024.1 |
| 20260902201603 | 64 | 0 | 0.0 | 0.0 | 0.00 | 0.00 | 0.00 | 97 | 1023.8 |
| 20260902201524 | 64 | 0 | 0.0 | 0.0 | 0.00 | 0.00 | 0.00 | 97 | 1023.8 |
| 20260902201403 | 65 | 0 | 0.0 | 0.0 | 0.00 | 0.00 | 0.00 | 97 | 1023.9 |
| 20260902201324 | 65 | 0 | 0.0 | 0.0 | 0.00 | 0.00 | 0.00 | 96 | 1023.9 |
| 20260902201203 | 65 | 0 | 0.0 | 0.0 | 0.00 | 0.00 | 0.00 | 96 | 1023.9 |
| 20260902201124 | 65 | 0 | 0.0 | 0.0 | 0.00 | 0.00 | 0.00 | 96 | 1023.8 |
| 20260902201003 | 65 | 0 | 0.0 | 0.0 | 0.00 | 0.00 | 0.00 | 96 | 1023.8 |
| 20260902200903 | 65 | 0 | 0.0 | 0.0 | 0.00 | 0.00 | 0.00 | 96 | 1023.8 |
| 20260902200803 | 65 | 0 | 0.0 | 0.0 | 0.00 | 0.00 | 0.00 | 96 | 1023.9 |
| 20260902200703 | 65 | 0 | 0.0 | 0.0 | 0.00 | 0.00 | 0.00 | 96 | 1023.7 |
| 20260902200624 | 65 | 0 | 0.0 | 0.0 | 0.00 | 0.00 | 0.00 | 96 | 1023.8 |
| 20260902200503 | 65 | 0 | 0.0 | 0.0 | 0.00 | 0.00 | 0.00 | 96 | 1023.9 |
| 20260902200404 | 65 | 0 | 0.0 | 0.0 | 0.00 | 0.00 | 0.00 | 96 | 1023.9 |
| 20260902200303 | 65 | 7 | 0.0 | 1.0 | 0.00 | 0.00 | 0.00 | 96 | 1023.9 |
| 20260902200224 | 65 | 7 | 0.0 | 1.0 | 0.00 | 0.00 | 0.00 | 96 | 1023.9 |
| 20260902200024 | 65 | 7 | 0.0 | 1.0 | 0.00 | 0.00 | 0.00 | 96 | 1023.9 |
| 20260902195903 | 65 | 7 | 0.0 | 1.0 | 0.00 | 0.00 | 0.00 | 96 | 1023.9 |
| 20260902195803 | 65 | 7 | 0.0 | 1.0 | 0.00 | 0.00 | 0.00 | 96 | 1023.9 |
| 20260902195724 | 65 | 7 | 0.0 | 1.0 | 0.00 | 0.00 | 0.00 | 96 | 1023.9 |
| 20260902195603 | 65 | 10 | 0.0 | 1.0 | 0.00 | 0.00 | 0.00 | 96 | 1023.8 |
| 20260902195503 | 65 | 10 | 0.0 | 1.0 | 0.00 | 0.00 | 0.00 | 96 | 1023.9 |
| 20260902195403 | 65 | 10 | 0.0 | 1.0 | 0.00 | 0.00 | 0.00 | 96 | 1023.8 |
| 20260902195306 | 65 | 10 | 0.0 | 1.0 | 0.00 | 0.00 | 0.00 | 96 | 1023.7 |
| 20260902195203 | 65 | 12 | 0.0 | 1.0 | 0.00 | 0.00 | 0.00 | 95 | 1023.7 |
| 20260902195103 | 65 | 12 | 0.0 | 1.0 | 0.00 | 0.00 | 0.00 | 95 | 1023.8 |
| 20260902195003 | 65 | 6 | 0.0 | 1.0 | 0.00 | 0.00 | 0.00 | 95 | 1023.7 |
| 20260902194903 | 65 | 6 | 0.0 | 1.0 | 0.00 | 0.00 | 0.00 | 95 | 1023.6 |
| 20260902194803 | 65 | 6 | 0.0 | 1.0 | 0.00 | 0.00 | 0.00 | 95 | 1023.7 |
| 20260902194703 | 65 | 2 | 0.0 | 1.0 | 0.00 | 0.00 | 0.00 | 95 | 1023.7 |
| 20260902194624 | 65 | 2 | 0.0 | 1.0 | 0.00 | 0.00 | 0.00 | 95 | 1023.7 |
| 20260902194503 | 65 | 355 | 0.0 | 1.0 | 0.00 | 0.00 | 0.00 | 95 | 1023.8 |
| 20260902194403 | 65 | 355 | 0.0 | 1.0 | 0.00 | 0.00 | 0.00 | 95 | 1023.7 |
| 20260902194303 | 65 | 355 | 0.0 | 1.0 | 0.00 | 0.00 | 0.00 | 95 | 1023.6 |
| 20260902194203 | 65 | 355 | 0.0 | 1.0 | 0.00 | 0.00 | 0.00 | 95 | 1023.6 |
| 20260902194103 | 65 | 355 | 0.0 | 1.0 | 0.00 | 0.00 | 0.00 | 95 | 1023.6 |
| 20260902194003 | 65 | 355 | 0.0 | 1.0 | 0.00 | 0.00 | 0.00 | 95 | 1023.6 |
| 20260902193903 | 66 | 355 | 0.0 | 1.0 | 0.00 | 0.00 | 0.00 | 94 | 1023.8 |
| 20260902193803 | 66 | 2 | 0.0 | 1.0 | 0.00 | 0.00 | 0.00 | 94 | 1023.6 |
| 20260902193703 | 66 | 6 | 0.0 | 1.0 | 0.00 | 0.00 | 0.00 | 94 | 1023.8 |
| 20260902193603 | 66 | 9 | 0.0 | 1.0 | 0.00 | 0.00 | 0.00 | 94 | 1023.7 |
| 20260902193503 | 66 | 14 | 0.0 | 1.0 | 0.00 | 0.00 | 0.00 | 94 | 1023.5 |
| 20260902193403 | 66 | 24 | 0.0 | 1.0 | 0.00 | 0.00 | 0.00 | 94 | 1023.6 |
| 20260902193303 | 66 | 24 | 0.0 | 1.0 | 0.00 | 0.00 | 0.00 | 94 | 1023.6 |
| 20260902193224 | 66 | 24 | 0.0 | 1.0 | 0.00 | 0.00 | 0.00 | 94 | 1023.5 |
| 20260902193103 | 66 | 24 | 0.0 | 1.0 | 0.00 | 0.00 | 0.00 | 94 | 1023.5 |
| 20260902193024 | 66 | 24 | 0.0 | 1.0 | 0.00 | 0.00 | 0.00 | 94 | 1023.5 |
| 20260902192903 | 66 | 24 | 0.0 | 1.0 | 0.00 | 0.00 | 0.00 | 94 | 1023.5 |
| 20260902192824 | 66 | 24 | 0.0 | 1.0 | 0.00 | 0.00 | 0.00 | 94 | 1023.5 |
| 20260902192724 | 66 | 24 | 0.0 | 1.0 | 0.00 | 0.00 | 0.00 | 93 | 1023.6 |
| 20260902192603 | 66 | 24 | 0.0 | 1.0 | 0.00 | 0.00 | 0.00 | 93 | 1023.3 |
| 20260902192503 | 66 | 17 | 0.0 | 1.0 | 0.00 | 0.00 | 0.00 | 93 | 1023.5 |
| 20260902192403 | 66 | 15 | 0.0 | 1.0 | 0.00 | 0.00 | 0.00 | 93 | 1023.2 |
| 20260902192306 | 66 | 14 | 0.0 | 1.0 | 0.00 | 0.00 | 0.00 | 93 | 1023.3 |
| 20260902192224 | 67 | 14 | 0.0 | 1.0 | 0.00 | 0.00 | 0.00 | 93 | 1023.3 |
| 20260902192124 | 67 | 14 | 0.0 | 1.0 | 0.00 | 0.00 | 0.00 | 93 | 1023.5 |
| 20260902192003 | 67 | 13 | 0.0 | 1.0 | 0.00 | 0.00 | 0.00 | 93 | 1023.5 |
| 20260902191903 | 67 | 13 | 0.0 | 1.0 | 0.00 | 0.00 | 0.00 | 92 | 1023.3 |
| 20260902191803 | 67 | 13 | 0.0 | 1.0 | 0.00 | 0.00 | 0.00 | 92 | 1023.6 |
| 20260902191703 | 67 | 9 | 0.0 | 1.0 | 0.00 | 0.00 | 0.00 | 92 | 1023.3 |
| 20260902191603 | 67 | 360 | 0.0 | 2.0 | 0.00 | 0.00 | 0.00 | 92 | 1023.2 |
| 20260902191503 | 67 | 357 | 0.0 | 2.0 | 0.00 | 0.00 | 0.00 | 92 | 1023.3 |
| 20260902191403 | 67 | 353 | 1.0 | 2.0 | 0.00 | 0.00 | 0.00 | 92 | 1023.1 |
| 20260902191324 | 67 | 353 | 1.0 | 2.0 | 0.00 | 0.00 | 0.00 | 92 | 1023.1 |
| 20260902191224 | 67 | 342 | 1.0 | 2.0 | 0.00 | 0.00 | 0.00 | 91 | 1023.2 |
| 20260902191124 | 67 | 341 | 1.0 | 2.0 | 0.00 | 0.00 | 0.00 | 91 | 1023.3 |
| 20260902191003 | 67 | 341 | 1.0 | 2.0 | 0.00 | 0.00 | 0.00 | 91 | 1023.3 |
| 20260902190924 | 67 | 338 | 1.0 | 2.0 | 0.00 | 0.00 | 0.00 | 91 | 1023.2 |
| 20260902190803 | 67 | 339 | 1.0 | 2.0 | 0.00 | 0.00 | 0.00 | 91 | 1023.3 |
| 20260902190703 | 67 | 343 | 1.0 | 2.0 | 0.00 | 0.00 | 0.00 | 91 | 1023.2 |
| 20260902190603 | 68 | 341 | 1.0 | 2.0 | 0.00 | 0.00 | 0.00 | 91 | 1023.2 |
| 20260902190503 | 68 | 342 | 1.0 | 2.0 | 0.00 | 0.00 | 0.00 | 91 | 1023.3 |
| 20260902190403 | 68 | 342 | 1.0 | 2.0 | 0.00 | 0.00 | 0.00 | 91 | 1023.5 |
| 20260902190303 | 68 | 343 | 1.0 | 2.0 | 0.00 | 0.00 | 0.00 | 90 | 1023.5 |
| 20260902190203 | 68 | 349 | 1.0 | 2.0 | 0.00 | 0.00 | 0.00 | 90 | 1023.3 |
| 20260902190003 | 68 | 350 | 1.0 | 2.0 | 0.00 | 0.00 | 0.00 | 90 | 1023.3 |
| 20260902185903 | 68 | 349 | 1.0 | 2.0 | 0.00 | 0.00 | 0.00 | 90 | 1023.3 |
| 20260902185824 | 68 | 349 | 1.0 | 2.0 | 0.00 | 0.00 | 0.00 | 90 | 1023.3 |
| 20260902185703 | 68 | 347 | 1.0 | 2.0 | 0.00 | 0.00 | 0.00 | 90 | 1023.6 |
| 20260902185603 | 68 | 347 | 1.0 | 2.0 | 0.00 | 0.00 | 0.00 | 89 | 1023.2 |
| 20260902185503 | 69 | 348 | 1.0 | 2.0 | 0.00 | 0.00 | 0.00 | 89 | 1023.3 |
| 20260902185403 | 69 | 348 | 1.0 | 2.0 | 0.00 | 0.00 | 0.00 | 89 | 1023.3 |
| 20260902185306 | 69 | 348 | 1.0 | 2.0 | 0.00 | 0.00 | 0.00 | 89 | 1023.2 |
| 20260902185204 | 69 | 347 | 1.0 | 2.0 | 0.00 | 0.00 | 0.00 | 89 | 1023.5 |
| 20260902185103 | 69 | 345 | 1.0 | 2.0 | 0.00 | 0.00 | 0.00 | 88 | 1023.3 |
| 20260902185025 | 69 | 343 | 1.0 | 2.0 | 0.00 | 0.00 | 0.00 | 88 | 1023.5 |
| 20260902184903 | 69 | 343 | 1.0 | 2.0 | 0.00 | 0.00 | 0.00 | 88 | 1023.5 |
| 20260902184824 | 69 | 343 | 1.0 | 2.0 | 0.00 | 0.00 | 0.00 | 87 | 1023.5 |
| 20260902184703 | 70 | 342 | 1.0 | 2.0 | 0.00 | 0.00 | 0.00 | 87 | 1023.5 |
| 20260902184603 | 70 | 331 | 1.0 | 3.0 | 0.00 | 0.00 | 0.00 | 87 | 1023.3 |
| 20260902184503 | 70 | 330 | 1.0 | 3.0 | 0.00 | 0.00 | 0.00 | 87 | 1023.3 |
| 20260902184403 | 70 | 331 | 1.0 | 3.0 | 0.00 | 0.00 | 0.00 | 86 | 1023.3 |
| 20260902184303 | 70 | 333 | 1.0 | 3.0 | 0.00 | 0.00 | 0.00 | 86 | 1023.1 |
| 20260902184203 | 70 | 332 | 1.0 | 3.0 | 0.00 | 0.00 | 0.00 | 86 | 1023.3 |
| 20260902184103 | 70 | 332 | 1.0 | 3.0 | 0.00 | 0.00 | 0.00 | 86 | 1023.5 |
| 20260902184003 | 71 | 334 | 1.0 | 3.0 | 0.00 | 0.00 | 0.00 | 86 | 1023.3 |
| 20260902183903 | 71 | 335 | 1.0 | 3.0 | 0.00 | 0.00 | 0.00 | 86 | 1023.2 |
| 20260902183803 | 71 | 335 | 1.0 | 3.0 | 0.00 | 0.00 | 0.00 | 86 | 1023.2 |
| 20260902183703 | 71 | 335 | 1.0 | 3.0 | 0.00 | 0.00 | 0.00 | 86 | 1023.2 |
| 20260902183603 | 71 | 336 | 1.0 | 3.0 | 0.00 | 0.00 | 0.00 | 85 | 1023.2 |
| 20260902183503 | 71 | 350 | 1.0 | 3.0 | 0.00 | 0.00 | 0.00 | 85 | 1023.3 |
| 20260902183403 | 71 | 351 | 1.0 | 3.0 | 0.00 | 0.00 | 0.00 | 85 | 1023.2 |
| 20260902183303 | 71 | 338 | 1.0 | 3.0 | 0.00 | 0.00 | 0.00 | 85 | 1023.2 |
| 20260902183203 | 71 | 336 | 1.0 | 3.0 | 0.00 | 0.00 | 0.00 | 85 | 1023.2 |
| 20260902183103 | 71 | 336 | 1.0 | 3.0 | 0.00 | 0.00 | 0.00 | 85 | 1023.3 |
| 20260902183003 | 71 | 332 | 2.0 | 3.0 | 0.00 | 0.00 | 0.00 | 85 | 1023.3 |
| 20260902182924 | 71 | 317 | 2.0 | 6.0 | 0.00 | 0.00 | 0.00 | 85 | 1023.3 |
| 20260902182803 | 71 | 314 | 2.0 | 6.0 | 0.00 | 0.00 | 0.00 | 85 | 1023.3 |
| 20260902182703 | 71 | 317 | 2.0 | 6.0 | 0.00 | 0.00 | 0.00 | 85 | 1023.3 |
| 20260902182603 | 71 | 319 | 2.0 | 6.0 | 0.00 | 0.00 | 0.00 | 84 | 1023.5 |
| 20260902182524 | 71 | 316 | 2.0 | 6.0 | 0.00 | 0.00 | 0.00 | 85 | 1023.2 |
| 20260902182403 | 71 | 315 | 2.0 | 6.0 | 0.00 | 0.00 | 0.00 | 84 | 1023.6 |
| 20260902182306 | 71 | 318 | 2.0 | 6.0 | 0.00 | 0.00 | 0.00 | 84 | 1023.5 |
| 20260902182203 | 71 | 318 | 2.0 | 6.0 | 0.00 | 0.00 | 0.00 | 84 | 1023.5 |
| 20260902182124 | 71 | 317 | 2.0 | 6.0 | 0.00 | 0.00 | 0.00 | 84 | 1023.5 |
| 20260902182004 | 72 | 318 | 2.0 | 6.0 | 0.00 | 0.00 | 0.00 | 83 | 1023.5 |
| 20260902181903 | 72 | 328 | 2.0 | 4.0 | 0.00 | 0.00 | 0.00 | 83 | 1023.3 |
| 20260902181803 | 72 | 333 | 2.0 | 4.0 | 0.00 | 0.00 | 0.00 | 83 | 1023.6 |
| 20260902181703 | 72 | 324 | 2.0 | 4.0 | 0.00 | 0.00 | 0.00 | 84 | 1023.3 |
| 20260902181603 | 72 | 317 | 2.0 | 4.0 | 0.00 | 0.00 | 0.00 | 83 | 1023.6 |
| 20260902181503 | 72 | 316 | 2.0 | 4.0 | 0.00 | 0.00 | 0.00 | 84 | 1023.3 |
| 20260902181424 | 72 | 316 | 2.0 | 4.0 | 0.00 | 0.00 | 0.00 | 84 | 1023.3 |
| 20260902181303 | 72 | 316 | 2.0 | 4.0 | 0.00 | 0.00 | 0.00 | 84 | 1023.3 |
| 20260902181203 | 71 | 317 | 2.0 | 4.0 | 0.00 | 0.00 | 0.00 | 84 | 1023.5 |
| 20260902181124 | 71 | 317 | 2.0 | 4.0 | 0.00 | 0.00 | 0.00 | 84 | 1023.5 |
| 20260902181003 | 71 | 310 | 2.0 | 4.0 | 0.00 | 0.00 | 0.00 | 84 | 1023.6 |
| 20260902180924 | 72 | 310 | 2.0 | 4.0 | 0.00 | 0.00 | 0.00 | 84 | 1023.6 |
| 20260902180803 | 72 | 312 | 2.0 | 4.0 | 0.00 | 0.00 | 0.00 | 84 | 1023.7 |
| 20260902180703 | 72 | 311 | 2.0 | 4.0 | 0.00 | 0.00 | 0.00 | 83 | 1023.7 |
| 20260902180624 | 72 | 314 | 2.0 | 4.0 | 0.00 | 0.00 | 0.00 | 83 | 1023.7 |
| 20260902180503 | 72 | 318 | 2.0 | 3.0 | 0.00 | 0.00 | 0.00 | 82 | 1023.5 |
| 20260902180403 | 72 | 318 | 2.0 | 3.0 | 0.00 | 0.00 | 0.00 | 82 | 1023.5 |
| 20260902180324 | 72 | 318 | 2.0 | 3.0 | 0.00 | 0.00 | 0.00 | 82 | 1023.5 |
| 20260902180203 | 73 | 308 | 2.0 | 4.0 | 0.00 | 0.00 | 0.00 | 82 | 1023.6 |
| 20260902180005 | 72 | 310 | 2.0 | 4.0 | 0.00 | 0.00 | 0.00 | 82 | 1023.7 |
| 20260902175903 | 72 | 309 | 2.0 | 4.0 | 0.00 | 0.00 | 0.00 | 82 | 1023.3 |
| 20260902175803 | 72 | 309 | 2.0 | 4.0 | 0.00 | 0.00 | 0.00 | 82 | 1023.3 |
| 20260902175724 | 72 | 309 | 2.0 | 4.0 | 0.00 | 0.00 | 0.00 | 82 | 1023.6 |
| 20260902175625 | 72 | 306 | 2.0 | 4.0 | 0.00 | 0.00 | 0.00 | 82 | 1023.6 |
| 20260902175503 | 72 | 306 | 2.0 | 4.0 | 0.00 | 0.00 | 0.00 | 82 | 1023.7 |
| 20260902175403 | 73 | 309 | 2.0 | 4.0 | 0.00 | 0.00 | 0.00 | 82 | 1023.6 |
| 20260902175307 | 73 | 309 | 2.0 | 4.0 | 0.00 | 0.00 | 0.00 | 82 | 1023.6 |
| 20260902175204 | 73 | 308 | 2.0 | 4.0 | 0.00 | 0.00 | 0.00 | 82 | 1023.6 |
| 20260902175124 | 73 | 315 | 2.0 | 4.0 | 0.00 | 0.00 | 0.00 | 82 | 1023.7 |
| 20260902175024 | 73 | 312 | 2.0 | 4.0 | 0.00 | 0.00 | 0.00 | 82 | 1023.6 |
| 20260902174903 | 73 | 306 | 2.0 | 6.0 | 0.00 | 0.00 | 0.00 | 82 | 1023.6 |
| 20260902174824 | 73 | 308 | 2.0 | 6.0 | 0.00 | 0.00 | 0.00 | 82 | 1023.7 |
| 20260902174703 | 73 | 302 | 2.0 | 6.0 | 0.00 | 0.00 | 0.00 | 82 | 1023.6 |
| 20260902174603 | 73 | 305 | 2.0 | 6.0 | 0.00 | 0.00 | 0.00 | 82 | 1023.7 |
| 20260902174503 | 72 | 305 | 3.0 | 6.0 | 0.00 | 0.00 | 0.00 | 83 | 1023.6 |
| 20260902174424 | 72 | 305 | 3.0 | 6.0 | 0.00 | 0.00 | 0.00 | 83 | 1023.6 |
| 20260902174303 | 72 | 300 | 2.0 | 6.0 | 0.00 | 0.00 | 0.00 | 82 | 1023.7 |
| 20260902174224 | 72 | 300 | 2.0 | 6.0 | 0.00 | 0.00 | 0.00 | 82 | 1023.7 |
| 20260902174103 | 72 | 301 | 2.0 | 6.0 | 0.00 | 0.00 | 0.00 | 83 | 1023.8 |
| 20260902174024 | 72 | 300 | 3.0 | 6.0 | 0.00 | 0.00 | 0.00 | 83 | 1023.6 |
| 20260902173924 | 72 | 305 | 2.0 | 6.0 | 0.00 | 0.00 | 0.00 | 83 | 1023.5 |
| 20260902173803 | 72 | 313 | 3.0 | 6.0 | 0.00 | 0.00 | 0.00 | 83 | 1023.7 |
| 20260902173724 | 72 | 306 | 3.0 | 6.0 | 0.00 | 0.00 | 0.00 | 82 | 1023.3 |
| 20260902173603 | 73 | 313 | 3.0 | 6.0 | 0.00 | 0.00 | 0.00 | 82 | 1023.6 |
| 20260902173503 | 73 | 313 | 2.0 | 6.0 | 0.00 | 0.00 | 0.00 | 82 | 1023.7 |
| 20260902173403 | 73 | 314 | 2.0 | 6.0 | 0.00 | 0.00 | 0.00 | 82 | 1023.6 |
| 20260902173303 | 73 | 309 | 3.0 | 6.0 | 0.00 | 0.00 | 0.00 | 82 | 1023.6 |
| 20260902173203 | 73 | 312 | 3.0 | 6.0 | 0.00 | 0.00 | 0.00 | 81 | 1023.8 |
| 20260902173103 | 73 | 305 | 3.0 | 6.0 | 0.00 | 0.00 | 0.00 | 81 | 1023.7 |
| 20260902173003 | 74 | 304 | 3.0 | 6.0 | 0.00 | 0.00 | 0.00 | 81 | 1023.5 |
| 20260902172924 | 74 | 304 | 3.0 | 6.0 | 0.00 | 0.00 | 0.00 | 81 | 1023.5 |
| 20260902172803 | 74 | 293 | 3.0 | 6.0 | 0.00 | 0.00 | 0.00 | 80 | 1023.7 |
| 20260902172703 | 73 | 297 | 3.0 | 6.0 | 0.00 | 0.00 | 0.00 | 81 | 1023.6 |
| 20260902172603 | 73 | 297 | 3.0 | 6.0 | 0.00 | 0.00 | 0.00 | 81 | 1023.6 |
| 20260902172524 | 73 | 301 | 3.0 | 6.0 | 0.00 | 0.00 | 0.00 | 81 | 1023.6 |
| 20260902172403 | 73 | 297 | 3.0 | 6.0 | 0.00 | 0.00 | 0.00 | 81 | 1023.7 |
| 20260902172324 | 73 | 291 | 3.0 | 6.0 | 0.00 | 0.00 | 0.00 | 81 | 1023.7 |
| 20260902172224 | 73 | 289 | 3.0 | 6.0 | 0.00 | 0.00 | 0.00 | 82 | 1023.6 |
| 20260902172103 | 73 | 283 | 3.0 | 7.0 | 0.00 | 0.00 | 0.00 | 81 | 1023.7 |
| 20260902172004 | 73 | 287 | 3.0 | 7.0 | 0.00 | 0.00 | 0.00 | 81 | 1023.6 |
| 20260902171924 | 73 | 290 | 4.0 | 7.0 | 0.00 | 0.00 | 0.00 | 81 | 1023.6 |
| 20260902171803 | 73 | 288 | 3.0 | 7.0 | 0.00 | 0.00 | 0.00 | 81 | 1023.6 |
| 20260902171703 | 73 | 293 | 3.0 | 7.0 | 0.00 | 0.00 | 0.00 | 81 | 1023.6 |
| 20260902171603 | 73 | 285 | 4.0 | 8.0 | 0.00 | 0.00 | 0.00 | 81 | 1023.6 |
| 20260902171524 | 73 | 285 | 4.0 | 8.0 | 0.00 | 0.00 | 0.00 | 81 | 1023.6 |
| 20260902171424 | 73 | 282 | 4.0 | 8.0 | 0.00 | 0.00 | 0.00 | 81 | 1023.7 |
| 20260902171324 | 73 | 281 | 4.0 | 8.0 | 0.00 | 0.00 | 0.00 | 81 | 1023.6 |
| 20260902171203 | 73 | 280 | 4.0 | 8.0 | 0.00 | 0.00 | 0.00 | 81 | 1023.7 |
| 20260902171103 | 73 | 288 | 4.0 | 8.0 | 0.00 | 0.00 | 0.00 | 81 | 1023.6 |
| 20260902171003 | 73 | 288 | 4.0 | 8.0 | 0.00 | 0.00 | 0.00 | 81 | 1023.6 |
| 20260902170903 | 73 | 289 | 4.0 | 8.0 | 0.00 | 0.00 | 0.00 | 81 | 1023.6 |
| 20260902170803 | 73 | 284 | 4.0 | 8.0 | 0.00 | 0.00 | 0.00 | 81 | 1023.8 |
| 20260902170703 | 74 | 287 | 4.0 | 8.0 | 0.00 | 0.00 | 0.00 | 80 | 1023.6 |
| 20260902170603 | 74 | 292 | 4.0 | 8.0 | 0.00 | 0.00 | 0.00 | 80 | 1023.7 |
| 20260902170503 | 74 | 304 | 3.0 | 7.0 | 0.00 | 0.00 | 0.00 | 80 | 1023.5 |
| 20260902170403 | 74 | 304 | 3.0 | 7.0 | 0.00 | 0.00 | 0.00 | 79 | 1023.6 |
| 20260902170324 | 74 | 304 | 3.0 | 7.0 | 0.00 | 0.00 | 0.00 | 79 | 1023.6 |
| 20260902170224 | 74 | 308 | 3.0 | 7.0 | 0.00 | 0.00 | 0.00 | 79 | 1023.7 |
| 20260902170124 | 74 | 314 | 3.0 | 6.0 | 0.00 | 0.00 | 0.00 | 79 | 1023.6 |
| 20260902170003 | 74 | 305 | 3.0 | 6.0 | 0.00 | 0.00 | 0.00 | 80 | 1023.7 |
| 20260902165903 | 74 | 305 | 4.0 | 6.0 | 0.00 | 0.00 | 0.00 | 79 | 1023.7 |